                ,  0.290,  0.386,  0.483,  0.580,  0.676,  0.773,  0.869,  0.966,  1.063,  1.159,  1.256,  1.352,  1.449,  1.545,  1.642,  1.739,  1.835,  1.932,  2.028,  2.125,  2.222,  2.318,  2.415,  2.511,  2.608,  2.705,  2.801,  2.898,  2.994,  3.091,  3.188,  3.284,  3.381,  3.477,  3.574,  3.671,  3.767,  3.864,  3.960,  4.057,  4.153,  4.250,  4.347,  4.443,  4.540,  4.636,  4.733,  4.830,  4.926,  5.023,  5.119,  5.216,  5.313,  5.409,  5.506,  5.602,  5.699,  5.796
2000/12/28 00:00,  999.0,  999.0,  999.0,  999.0,  999.0,  999.0,  999.0,  999.0,  999.0,  999.0,  999.0,  999.0,  999.0,  999.0,  999.0,  999.0,  999.0,  999.0,  999.0,  999.0,  999.0,  999.0,  999.0,  999.0,  999.0,  999.0,  999.0,  999.0,  999.0,  999.0,  999.0,  999.0,  999.0,  999.0,  999.0,  999.0,  999.0,  999.0,  999.0,  999.0,  999.0,  999.0,  999.0,  999.0,  999.0,  999.0,  999.0,  999.0,  999.0,  999.0,  999.0,  999.0,  999.0,  999.0,  999.0,  999.0,  999.0,  999.0
2000/12/28 00:10,  999.0,   -1.5,    2.6,    3.2,    2.3,    3.4,    2.9,    2.8,    3.4,    4.3,  999.0,   -0.5,  999.0,  999.0,  999.0,    1.3,    1.0,  999.0,    0.3,  999.0,  999.0,  999.0,  999.0,  999.0,  999.0,  999.0,  999.0,  999.0,  999.0,  999.0,  999.0,  999.0,  999.0,  999.0,  999.0,  999.0,  999.0,  999.0,  999.0,  999.0,  999.0,  999.0,  999.0,  999.0,  999.0,  999.0,  999.0,  999.0,  999.0,  999.0,  999.0,  999.0,  999.0,  999.0,  999.0,  999.0,  999.0,  999.0
2000/12/28 00:20,  999.0,    1.2,    1.3,    0.8,    1.6,    2.6,    1.6,    3.4,    3.0,    3.9,    3.5,    3.9,    2.7,  999.0,  999.0,  999.0,  999.0,  999.0,  999.0,  999.0,  999.0,   -9.3,  999.0,  999.0,  999.0,  999.0,  999.0,  999.0,  999.0,  999.0,  999.0,  999.0,  999.0,  999.0,  999.0,  999.0,  999.0,  999.0,  999.0,  999.0,  999.0,  999.0,  999.0,  999.0,  999.0,  999.0,  999.0,  999.0,  999.0,  999.0,  -11.9,  999.0,  999.0,  -13.4,  999.0,  999.0,  999.0,  999.0
2000/12/28 00:30,  999.0,    2.4,    2.0,    1.4,    1.9,    3.3,    3.7,    2.2,    3.8,    5.6,    3.1,    3.0,  999.0,  999.0,  999.0,  999.0,  999.0,  999.0,  999.0,  999.0,  999.0,  999.0,  999.0,  999.0,  999.0,  999.0,  999.0,  999.0,  999.0,  999.0,  999.0,  999.0,  999.0,  999.0,  999.0,  999.0,  999.0,  999.0,  999.0,  999.0,  999.0,  999.0,  999.0,  999.0,  999.0,  999.0,  999.0,  999.0,  999.0,  999.0,  999.0,  999.0,  999.0,  999.0,  999.0,  999.0,  999.0,  999.0
2000/12/28 00:40,  999.0,   -3.2,   -0.9,    1.3,    1.5,    2.5,    2.3,    2.2,    0.2,    0.8,    0.4,  999.0,  999.0,  999.0,  999.0,  999.0,  999.0,  999.0,  999.0,  999.0,  999.0,  999.0,  999.0,  999.0,  999.0,  999.0,  999.0,  999.0,  999.0,  999.0,    7.8,  999.0,  999.0,  999.0,    7.4,    6.1,    6.0,    4.7,    2.6,    5.2,    2.2,    0.8,    1.9,  999.0,    1.0,    1.0,    1.4,    0.9,    0.9,   -0.0,  999.0,    0.7,  999.0,    0.7,    1.0,    0.6,    0.9,  999.0
2000/12/28 00:50,  999.0,  999.0,    0.9,    1.6,    0.5,    2.7,    3.1,    2.9,  999.0,  999.0,    4.2,    3.9,    4.6,    4.3,  999.0,    9.3,  999.0,  999.0,  999.0,   21.1,  999.0,   17.3,  999.0,   15.2,   13.3,   12.3,   12.1,   10.6,    9.5,    7.4,  999.0,    6.7,    5.0,    3.9,    1.4,    1.7,    1.0,    1.2,    0.7,    0.9,    1.8,    0.6,    1.0,    0.4,  999.0,    0.3,    0.4,  999.0,    0.9,    1.2,    0.7,    0.7,    1.3,  999.0,    0.9,   -0.2,  999.0,  999.0
2000/12/28 01:00,  999.0,  999.0,   -0.3,   -2.4,   -1.2,  999.0,   -3.8,  999.0,  999.0,  999.0,  999.0,    7.1,    5.9,    6.6,    2.3,  999.0,  999.0,   18.8,   16.2,  999.0,   13.7,   11.6,  999.0,   10.2,    7.8,    8.4,  999.0,    4.9,    3.9,    3.3,    2.4,  999.0,    0.5,    0.9,  999.0,    0.4,  999.0,  999.0,    0.9,    1.2,    0.8,  999.0,    1.0,    1.3,    0.3,    1.4,    0.7,    0.7,    1.0,    0.2,    0.2,  999.0,    0.8,    0.9,    0.3,    0.9,    0.3,  999.0
2000/12/28 01:10,  999.0,  999.0,   -0.0,    0.7,    0.3,    5.5,   10.2,    4.5,  999.0,    9.1,   21.8,   12.8,  999.0,  999.0,  999.0,   21.1,   20.2,  999.0,   17.2,   18.7,   15.0,   15.3,   10.0,    9.4,    9.2,  999.0,    6.8,    7.2,    4.9,    3.3,  999.0,    0.5,  999.0,  999.0,    0.4,  999.0,    0.4,    1.3,    0.8,    0.9,    1.4,  999.0,    0.7,    1.0,  999.0,    0.7,    0.9,    1.0,    0.6,    1.0,  999.0,    0.2,    0.5,    0.8,    0.5,    1.3,    0.7,    0.1
2000/12/28 01:20,  999.0,    3.0,  999.0,  999.0,    6.3,    1.5,  999.0,  999.0,   -8.8,  999.0,  999.0,  999.0,  -21.5,  999.0,  -23.2,  999.0,  -24.4,   -5.4,   13.8,  999.0,  999.0,   10.7,  -10.5,  -31.0,  -12.8,    5.4,  999.0,   -5.8,    2.3,  -18.4,    0.5,    3.5,    0.4,    0.7,    1.1,  -20.1,  -41.5,    1.7,    0.8,  999.0,  -41.8,    1.1,   -9.4,  999.0,  999.0,    0.7,    0.8,  999.0,  -42.4,    0.1,    0.7,  999.0,    1.0,  -42.0,  999.0,  999.0,  -20.8,  999.0
2000/12/28 01:30,  999.0,   -0.0,    0.7,    1.6,  999.0,  999.0,    4.1,    5.4,    6.1,  999.0,  999.0,  999.0,  999.0,  999.0,  999.0,  999.0,  999.0,  999.0,  999.0,   12.6,   11.0,   10.1,    9.6,    7.6,    6.5,    5.4,  -18.4,    1.7,    1.1,  999.0,    0.4,  999.0,  999.0,  999.0,  999.0,   -0.2,    1.0,    1.0,    1.0,  999.0,  999.0,    1.6,    0.6,    1.1,    0.5,    0.2,    1.0,    0.4,    1.4,  999.0,    0.9,  999.0,    0.5,  999.0,  999.0,    1.5,  999.0,    0.6
2000/12/28 01:40,  999.0,  999.0,  999.0,    6.0,  999.0,   -0.2,    2.2,    5.1,  999.0,  999.0,   -0.3,  999.0,  999.0,  999.0,  999.0,  999.0,  999.0,  999.0,  999.0,   11.9,   15.9,  999.0,    7.8,    8.6,    8.9,    8.1,    4.7,    4.5,    3.9,   -0.2,    1.3,    1.0,    0.8,    0.7,    0.7,    0.4,    0.2,    0.3,    1.1,  999.0,    0.5,    0.6,    1.1,    1.2,    0.7,    0.6,  999.0,    0.6,  999.0,    0.7,    0.7,    0.6,    0.5,    0.4,    0.2,    0.4,    0.5,  999.0
2000/12/28 01:50,  999.0,  999.0,  999.0,   -1.5,    0.6,    0.8,    3.0,    4.0,    8.3,  999.0,    6.2,  999.0,  999.0,  999.0,  999.0,  999.0,  999.0,   13.5,   15.9,   16.0,   14.4,  999.0,   12.1,  999.0,   12.3,  999.0,    8.3,    7.2,    9.0,    4.9,    4.6,    7.7,  999.0,  999.0,  999.0,    1.1,    2.8,    2.9,    1.0,    0.8,    1.4,    1.5,    1.0,    0.8,    0.9,    0.8,  999.0,    0.5,    0.6,    1.0,    0.1,  999.0,    0.9,    1.2,    1.7,    0.5,  999.0,  -27.2
2000/12/28 02:00,  999.0,  999.0,    1.9,    1.3,    4.2,    4.9,    4.5,    2.9,  999.0,  999.0,  999.0,  999.0,  999.0,   19.8,  999.0,   19.1,   19.1,  999.0,   16.1,  999.0,  999.0,   13.6,  999.0,   10.8,   10.6,    8.4,    7.4,  999.0,    6.9,    4.5,    4.2,    0.8,  999.0,  999.0,    0.6,  999.0,  999.0,  999.0,    0.8,  999.0,  999.0,    0.9,    0.7,    0.6,    1.0,    0.9,  999.0,    0.8,  999.0,    0.4,  -13.7,  999.0,    1.0,    0.8,    0.0,    0.5,    0.6,  -21.0
2000/12/28 02:10,  999.0,    0.1,    0.8,    1.8,   -2.8,    0.6,   -1.2,    0.8,    0.4,   21.4,  999.0,  999.0,  999.0,    1.2,  999.0,   20.6,  999.0,   21.1,  999.0,  999.0,  999.0,  999.0,  999.0,   15.4,  999.0,  999.0,   12.7,   12.4,  999.0,  999.0,  999.0,  999.0,  999.0,  999.0,    7.7,  999.0,  999.0,    5.6,  999.0,  999.0,  999.0,  999.0,  999.0,  999.0,  999.0,    1.5,  999.0,  999.0,    1.1,  999.0,  999.0,  999.0,  999.0,  999.0,  999.0,  999.0,    0.8,  999.0
2000/12/28 02:20,  999.0,   -3.2,    0.6,    2.1,    1.2,    1.2,    2.7,    2.9,    5.3,    5.2,  999.0,  999.0,   21.1,  999.0,   20.9,   20.8,   18.6,   17.1,  999.0,   14.9,   20.4,   13.6,   13.1,   11.8,   19.2,  999.0,   13.3,   15.1,   13.6,    9.6,    6.5,   10.4,    6.3,    5.3,    2.7,  999.0,    1.7,    1.4,    1.2,  999.0,  -13.2,  -13.2,  -20.4,  -41.9,  -20.6,    0.8,    1.3,    1.0,  -42.6,    0.5,  -42.4,  999.0,    0.0,  -42.5,  999.0,  -13.3,  999.0,    0.8
2000/12/28 02:30,  999.0,    1.6,    1.5,   -1.4,  999.0,    0.4,    1.7,    1.3,    0.3,  999.0,    3.0,  999.0,  999.0,  999.0,  999.0,  999.0,  999.0,   19.1,   17.9,   17.5,   15.5,   15.3,   14.9,   13.8,   11.0,   10.0,    9.4,  999.0,    6.7,  999.0,    7.4,    1.0,    5.8,    0.3,    0.4,    3.1,    2.1,    0.5,    0.6,    1.0,    0.9,    0.5,   -0.2,    0.4,    1.0,  999.0,  999.0,  999.0,    0.6,    0.7,    0.7,    0.1,  999.0,    1.3,  999.0,    1.3,  999.0,   -0.1
2000/12/28 02:40,  999.0,    0.2,    3.0,    2.5,    1.6,    1.3,    2.0,  999.0,  999.0,    2.9,  999.0,  999.0,  999.0,  999.0,    5.8,  999.0,  999.0,   18.2,   16.9,  999.0,   14.1,   12.6,  999.0,   11.8,   10.8,    7.8,    7.4,    5.6,    4.3,    3.5,    2.6,    0.4,    0.9,  999.0,    0.8,    1.0,  999.0,  999.0,    0.9,  999.0,    0.4,    1.0,    0.4,    0.6,    0.3,    0.5,    0.5,  999.0,    1.0,    0.9,    0.7,    0.8,    0.5,    1.1,    0.5,  999.0,    1.2,    0.2
2000/12/28 02:50,  999.0,    0.6,   -0.2,   -1.0,    4.1,    1.8,    0.3,   -2.5,  999.0,  999.0,  999.0,  999.0,  999.0,   21.4,   20.8,   20.7,   18.9,   18.5,   17.0,   15.7,   14.3,   11.5,   10.6,    6.7,    8.5,    6.2,    3.8,    1.1,    2.3,   -0.0,    1.3,    1.0,    0.4,    0.8,    0.4,    0.0,    0.2,    0.3,  999.0,  999.0,    1.0,    0.6,    0.4,  999.0,    0.2,    1.3,    0.9,  999.0,    1.2,    0.5,    0.5,    1.5,  999.0,    0.3,  999.0,  999.0,    0.6,    0.2
2000/12/28 03:00,  999.0,    0.3,    0.9,    0.9,   -0.7,  999.0,   16.0,   19.9,   21.1,   21.3,   21.1,   20.9,   21.1,   20.8,   19.4,   20.7,  999.0,   20.5,   18.7,   15.6,   16.6,   13.2,   11.9,    7.0,  999.0,    9.6,    6.9,  999.0,    3.2,    2.6,    2.7,    0.4,  999.0,    1.1,    0.5,    0.6,    0.4,    1.4,  999.0,    0.5,    0.4,    1.0,  999.0,    0.8,    0.9,    0.9,    0.8,    0.6,    0.9,    1.1,  999.0,    0.4,    1.6,  999.0,  999.0,  999.0,    1.1,    0.8
2000/12/28 03:10,  999.0,    3.4,  999.0,  999.0,   20.4,   17.7,   16.3,   21.0,   18.8,  999.0,  999.0,  999.0,   21.0,   20.3,   18.8,   20.2,   18.8,   16.2,   16.6,   14.6,   14.0,   11.1,   11.5,    8.5,    7.7,  999.0,    5.1,    3.6,    3.2,    1.1,    1.0,    0.8,    0.5,    0.8,  999.0,    0.7,  999.0,    0.6,    0.6,    0.8,    0.5,    0.8,    0.8,    0.5,    0.3,    0.4,    0.3,  999.0,    0.4,    0.1,    0.2,  999.0,  999.0,    0.7,    0.1,    1.3,  999.0,    1.0
2000/12/28 03:20,  999.0,   -1.4,   -0.4,    2.6,    2.6,    1.7,    0.3,    8.0,  999.0,    2.4,  999.0,    1.6,  999.0,  999.0,  999.0,    1.0,  999.0,    1.8,  999.0,    1.0,  999.0,  999.0,  999.0,  999.0,  999.0,  -22.1,  999.0,  999.0,  999.0,  999.0,  999.0,  -33.2,  999.0,  999.0,  999.0,  -40.9,  -41.7,  999.0,  999.0,  -41.2,  999.0,  999.0,  999.0,  -41.3,  999.0,  999.0,  999.0,  999.0,  -41.4,  999.0,  999.0,  -41.6,  999.0,  999.0,  999.0,  999.0,  999.0,  -42.0
2000/12/28 03:30,  999.0,   -2.5,    1.2,    3.2,    1.5,    0.2,    3.6,    1.6,    0.4,  999.0,    1.9,    1.4,    3.3,  999.0,  999.0,  999.0,  999.0,  999.0,    0.6,   -0.7,   -6.0,  999.0,  999.0,  999.0,  999.0,  999.0,  -14.5,  999.0,  999.0,  999.0,  999.0,  999.0,  999.0,  999.0,  999.0,  999.0,  999.0,  999.0,  999.0,  999.0,  999.0,  999.0,  999.0,    1.1,  999.0,    0.3,    5.8,  999.0,  999.0,  999.0,  999.0,  999.0,  999.0,  999.0,  999.0,  999.0,  999.0,  999.0
2000/12/28 03:40,  999.0,   -0.4,  999.0,    1.1,    0.5,    3.9,   -0.1,  999.0,  999.0,  999.0,  999.0,  999.0,    1.3,    2.2,  999.0,  999.0,  999.0,   -2.5,  999.0,    0.8,  999.0,    1.5,  999.0,  999.0,  999.0,  999.0,  999.0,  999.0,  999.0,  999.0,  999.0,  999.0,  999.0,  999.0,  999.0,  999.0,  999.0,  999.0,    2.9,    3.3,  999.0,    0.8,    0.6,    0.6,  999.0,   -0.5,    1.0,    0.6,    1.2,    0.7,    1.3,    0.6,   -0.5,  999.0,    1.4,  999.0,   -0.0,    1.2
2000/12/28 03:50,  999.0,  999.0,    2.3,    1.0,    1.6,    0.5,  999.0,  999.0,   -0.1,  999.0,  999.0,  999.0,  999.0,  999.0,  999.0,    2.1,  999.0,  999.0,  999.0,  999.0,  999.0,  999.0,  999.0,  999.0,  999.0,  999.0,  999.0,  999.0,  999.0,  999.0,   12.1,  999.0,  999.0,  999.0,  999.0,  999.0,    4.4,    3.1,  999.0,    1.0,    1.2,    0.9,    0.6,    1.1,    1.1,    1.1,    0.7,    0.7,    1.1,    0.8,    0.7,  999.0,  999.0,  999.0,    0.9,  999.0,    0.7,  999.0
2000/12/28 04:00,  999.0,  999.0,   -1.8,    1.1,    1.4,   -1.4,   -1.1,    2.1,  999.0,    4.8,  999.0,  999.0,  999.0,  999.0,  999.0,  999.0,  999.0,  999.0,  999.0,  999.0,   21.1,  999.0,   19.0,   18.1,   16.4,   16.1,   14.3,   12.7,   12.4,   10.9,    9.0,    7.3,    9.1,    4.6,  999.0,    2.8,  999.0,    1.7,    1.7,  999.0,    0.8,    0.6,    0.4,  999.0,    0.9,  999.0,  999.0,    0.9,  999.0,    0.8,    0.5,    1.2,  999.0,    0.4,    0.5,    1.1,    1.0,    0.6
2000/12/28 04:10,  999.0,    4.5,   -0.4,   -3.5,   -0.5,    0.5,   -0.3,    2.7,  999.0,  999.0,   -0.3,  999.0,  999.0,  999.0,  999.0,  999.0,  999.0,  999.0,   21.4,   21.6,  999.0,   18.0,  999.0,   17.6,   16.4,   14.4,  999.0,  999.0,   10.1,    9.3,    9.2,  999.0,  999.0,  999.0,  999.0,    2.4,    2.1,    0.8,   -0.2,    1.5,    1.2,    0.1,  999.0,    1.0,    0.6,    0.3,    0.2,    0.8,  999.0,   -0.5,    0.2,    0.3,  999.0,    0.4,    0.9,    0.7,    1.0,    1.0
2000/12/28 04:20,  999.0,    4.0,  999.0,   -1.8,   -1.5,    0.6,   -1.5,    3.0,    2.5,  999.0,  999.0,  999.0,  999.0,  999.0,  999.0,  999.0,  999.0,   21.7,   21.9,  999.0,  999.0,  999.0,  999.0,   21.3,  999.0,   22.6,   21.8,  999.0,  999.0,    9.9,   14.5,  999.0,   17.1,  999.0,  999.0,    6.0,    0.7,    0.8,  999.0,    2.3,    1.5,    1.1,  999.0,  999.0,    0.6,    0.7,    0.7,    1.0,    1.8,    0.8,    0.9,    0.8,    1.2,    0.4,    0.1,    0.4,   -0.4,    0.2
2000/12/28 04:30,  999.0,  999.0,  999.0,    5.6,    1.4,    0.8,    0.8,   -1.4,   -0.9,   22.2,  999.0,   20.0,   21.7,  999.0,  999.0,   22.5,   22.6,   21.4,   21.1,   20.7,   22.5,   21.8,  999.0,   21.1,   20.5,   19.8,   18.8,   16.8,   15.9,   13.5,   13.2,   10.9,    9.7,    9.9,    7.5,    7.4,    3.6,    3.2,    0.8,    0.6,    0.3,    0.2,    1.3,   -6.7,    0.9,  999.0,    0.4,    0.6,    1.3,    0.7,  999.0,    0.5,    0.3,    0.7,    0.1,    0.4,  999.0,    1.0
2000/12/28 04:40,  999.0,  999.0,  999.0,    0.5,   -4.0,   -1.1,   -0.7,    2.2,  999.0,  999.0,   20.8,  999.0,   20.7,  999.0,  999.0,  999.0,  999.0,  999.0,  999.0,  999.0,   15.3,   18.0,  999.0,   13.5,   16.5,   13.0,  999.0,  999.0,   16.5,    9.8,   20.6,  999.0,  999.0,   12.5,    6.5,    8.9,    2.4,    3.5,    1.2,    1.5,    1.2,    0.7,    0.4,    0.4,    0.3,    0.2,    0.7,  999.0,    0.8,  999.0,  999.0,    1.0,    0.8,    0.7,    0.5,   -0.4,  999.0,  999.0
2000/12/28 04:50,  999.0,    0.7,    1.9,    1.2,    0.6,    2.0,    2.8,    2.1,  999.0,  999.0,  999.0,   20.6,  999.0,  999.0,  999.0,   21.1,  999.0,  999.0,   21.3,   17.9,  999.0,   19.6,  999.0,   18.7,   18.9,   22.2,   13.0,   16.9,   12.7,   11.9,   16.8,   12.0,    8.0,  999.0,   11.3,   10.9,    2.6,    5.6,  999.0,  999.0,    2.4,  999.0,    0.7,    0.4,   -0.4,   -0.1,    1.0,    0.4,  999.0,  999.0,    1.2,    1.5,    0.8,    0.8,    0.8,    0.7,    0.5,    0.7
2000/12/28 05:00,  999.0,   -1.9,   -0.9,    1.2,    0.6,    1.6,    2.9,    2.4,    3.5,  999.0,  999.0,  999.0,   21.2,  999.0,   16.0,   20.8,  999.0,   21.4,   14.7,   21.0,   21.3,  999.0,   20.9,   22.0,    1.1,   11.5,   19.8,   18.4,   17.3,  999.0,   14.8,   12.5,  999.0,    9.9,  999.0,    6.7,    6.1,    4.6,    5.0,    0.9,    0.8,    2.1,   -2.5,    0.9,    0.7,    0.5,    0.3,    0.5,    1.4,    1.2,  999.0,  999.0,    0.7,    1.1,    0.6,    0.1,   -0.2,    0.8
2000/12/28 05:10,  999.0,   -0.2,    1.0,    0.2,    0.2,    1.7,    4.1,    2.8,    2.6,  999.0,  999.0,   20.9,   19.1,   19.3,   20.9,    1.4,  999.0,   21.2,  999.0,   21.2,   22.0,   21.8,   21.9,   21.2,   12.1,    1.0,   20.5,  999.0,   14.6,  999.0,  999.0,    6.6,    2.5,   11.2,   -0.0,    1.8,    0.7,    3.0,    2.4,    0.5,  999.0,    0.6,  999.0,    0.4,    0.8,    0.7,    1.2,    0.7,    0.4,    0.5,    1.1,    1.9,    0.9,    1.2,  999.0,    1.2,    1.0,  999.0
2000/12/28 05:20,  999.0,  999.0,  999.0,  999.0,    1.4,    4.2,    0.9,    1.5,    6.9,    3.0,  999.0,   20.9,  999.0,  999.0,  999.0,   21.2,    1.9,   20.9,    2.3,   21.6,   21.8,  999.0,   20.5,   11.7,   12.3,   21.7,   21.7,   18.7,   18.3,  999.0,   12.5,  999.0,  999.0,   10.3,    8.3,  999.0,    0.2,    1.4,    1.1,    1.0,    0.8,    0.8,    1.3,    0.6,    1.3,    1.0,  999.0,    0.7,    1.3,    0.9,    1.3,    0.8,    0.7,    1.0,    1.2,    0.4,    0.7,    0.7
2000/12/28 05:30,  999.0,  999.0,  999.0,    6.1,    5.5,    1.4,    3.5,    1.0,    1.5,  999.0,  999.0,  999.0,  999.0,    1.6,    1.2,  999.0,  999.0,  999.0,   21.9,  999.0,   19.9,   15.5,   15.6,   13.1,   19.6,  999.0,   15.4,  999.0,   13.3,    7.9,  999.0,  999.0,    8.4,    3.8,    4.4,    0.7,    1.6,    4.9,  999.0,    4.0,    1.3,    0.5,    1.5,  999.0,    0.0,    2.0,  999.0,  999.0,    0.9,    0.5,    0.9,    0.4,  999.0,    0.7,    1.0,    1.3,    1.1,    0.6
2000/12/28 05:40,  999.0,  999.0,  999.0,    0.0,    0.4,    6.2,    2.1,    8.3,    0.9,    0.9,  999.0,  999.0,    1.1,   15.9,   14.0,  999.0,   21.6,  999.0,   19.6,   20.8,  999.0,    1.3,   21.1,   19.3,   18.7,   17.1,   16.6,   15.0,   14.5,   12.1,   -1.7,    9.4,  999.0,    6.5,    6.4,    4.5,    3.2,    1.2,  999.0,    2.2,    0.6,    0.7,    0.6,    0.3,    1.3,    2.2,    1.3,    1.2,    0.8,    0.4,    0.7,    0.7,  999.0,    0.8,    0.8,    1.3,    1.2,    1.1
2000/12/28 05:50,  999.0,  999.0,  999.0,    2.3,    1.5,    0.9,    0.9,    2.2,    1.9,    1.8,    3.5,    2.1,  999.0,  999.0,   -1.6,   -0.3,   -0.6,  999.0,  999.0,  999.0,  999.0,   -0.8,  999.0,  999.0,  999.0,  999.0,  999.0,  999.0,  999.0,  999.0,  999.0,  999.0,  999.0,  999.0,  999.0,   11.3,    9.9,  999.0,  999.0,    1.4,    1.0,  999.0,  999.0,  999.0,    1.4,  999.0,    1.2,    0.7,    0.1,  999.0,    0.3,    1.0,  999.0,  999.0,    0.5,  999.0,    0.7,    0.9
2000/12/28 06:00,  999.0,  999.0,  999.0,    2.9,    2.3,    2.2,   -0.1,   -1.3,   -0.3,   -1.9,   -2.8,    0.7,   -1.2,   -0.3,   -0.8,   -3.4,   -3.3,   -7.0,   -5.2,  999.0,  999.0,  999.0,  999.0,  999.0,  999.0,  999.0,  999.0,  999.0,  999.0,  999.0,  999.0,  999.0,  999.0,    7.7,  999.0,    4.7,  999.0,    2.7,    1.2,  999.0,    1.4,    0.7,    0.3,    0.8,  999.0,    0.5,    1.4,  999.0,  999.0,    0.3,    0.6,  999.0,    0.2,  999.0,  999.0,    0.9,  999.0,    1.4
2000/12/28 06:10,  999.0,  999.0,  999.0,    0.1,   -1.8,    0.3,    1.4,    0.3,   -0.4,   -1.6,   -2.3,   -2.3,   -1.2,   -2.5,   -2.5,   -6.0,   -3.5,  999.0,  999.0,  999.0,  999.0,   -1.9,    0.0,  999.0,  999.0,   -3.4,  999.0,  999.0,  999.0,  999.0,  999.0,  999.0,  999.0,  999.0,  999.0,  999.0,  999.0,  999.0,  999.0,  999.0,  999.0,  999.0,  999.0,  999.0,  999.0,  999.0,  999.0,  999.0,  999.0,  999.0,  999.0,  999.0,  999.0,  999.0,  999.0,  999.0,  999.0,  999.0
2000/12/28 06:20,  999.0,    0.0,    4.6,    2.5,    1.9,   -0.8,    0.3,    1.8,   -0.4,   -1.3,   -0.8,    0.6,    2.6,   -1.0,   -0.4,  999.0,  999.0,  999.0,  999.0,  999.0,  999.0,   -0.9,   -2.0,  -20.8,  999.0,  -22.0,  999.0,  -21.6,  -21.5,  -21.6,  999.0,  999.0,  -21.1,  -21.3,  999.0,  999.0,  999.0,  -12.4,  999.0,  999.0,  -22.3,  -23.1,  -22.4,  999.0,  999.0,  999.0,  999.0,  999.0,  -22.2,  999.0,  999.0,  999.0,  -21.4,  999.0,  -21.2,  999.0,  999.0,  999.0
2000/12/28 06:30,  999.0,    1.6,    1.0,   -2.6,    2.9,    3.9,    2.5,    3.5,    4.6,  999.0,   -1.7,  999.0,    0.6,   -0.7,   -0.9,   -2.3,  999.0,    0.5,    0.6,  999.0,  999.0,  999.0,  999.0,  999.0,   -0.3,   -0.2,  999.0,  999.0,  999.0,  999.0,  999.0,  999.0,  999.0,  999.0,  999.0,  999.0,  999.0,  999.0,  999.0,  999.0,  999.0,  999.0,  999.0,  999.0,  999.0,  999.0,  999.0,  999.0,  999.0,  999.0,  999.0,  999.0,  999.0,  999.0,  999.0,  999.0,  999.0,  999.0
2000/12/28 06:40,  999.0,    3.0,    3.3,    3.3,    2.1,    0.1,    2.2,    3.1,    1.3,    1.0,    2.3,    2.7,    1.4,   -1.6,   -1.9,  999.0,   -0.2,  999.0,    0.6,    1.2,   -1.0,  999.0,   -2.2,  999.0,  999.0,  999.0,  999.0,  999.0,  999.0,  999.0,  999.0,  999.0,  999.0,  999.0,  999.0,  999.0,  -21.3,  -21.9,  -21.2,  999.0,  -20.9,  -20.8,  -21.3,  -21.1,  999.0,  999.0,  999.0,  999.0,  999.0,  999.0,  999.0,  999.0,  999.0,  999.0,  999.0,  999.0,  999.0,  999.0
2000/12/28 06:50,  999.0,    2.3,   -0.5,    2.3,    1.5,    3.5,    1.9,    0.8,    2.2,    0.2,    4.2,  999.0,  999.0,  999.0,  999.0,  999.0,  999.0,  999.0,    2.4,    0.9,    1.5,    0.5,    0.2,    0.1,   -5.8,   -6.8,  999.0,  999.0,  999.0,  999.0,  999.0,  999.0,  999.0,  -21.1,  999.0,  -20.5,  -21.8,  -20.8,  999.0,  -21.9,  -21.0,  -20.9,  -21.0,  -21.1,  -20.4,  -20.5,  -20.8,  999.0,  -20.4,  999.0,  999.0,  999.0,  999.0,  999.0,  999.0,  999.0,  999.0,  999.0
2000/12/28 07:00,  999.0,    0.5,    1.9,    3.3,    1.7,    3.5,    2.1,    2.1,    3.0,    1.8,    1.8,    3.2,    2.0,    0.0,    1.8,   -0.9,  999.0,  999.0,  999.0,   -0.0,  999.0,   -2.5,   -0.6,  999.0,  999.0,  999.0,  999.0,  999.0,  999.0,  999.0,  999.0,  999.0,  999.0,  999.0,  999.0,  999.0,  999.0,  -21.0,  999.0,  -20.9,  -20.6,  -20.7,  999.0,  -21.0,  999.0,  999.0,  -21.2,  999.0,  999.0,  -21.0,  999.0,  999.0,  -20.6,  -21.0,  999.0,  999.0,  -20.4,  -20.7
2000/12/28 07:10,  999.0,  999.0,   -1.3,   -1.6,    1.7,    0.3,   -0.4,    1.0,    1.1,    0.9,    1.5,    1.9,    1.6,   -0.6,    0.7,   -2.6,  999.0,  999.0,   -5.3,  -16.8,  -23.0,  999.0,  -12.0,  -11.6,  999.0,  999.0,  999.0,  999.0,  999.0,  999.0,  999.0,  999.0,  999.0,  999.0,  999.0,  -20.7,  -21.0,  999.0,  999.0,  999.0,  -22.0,  -21.7,  999.0,  -22.0,  -22.1,  -22.0,  999.0,  999.0,  -21.3,  -21.4,  -21.8,  999.0,  999.0,  999.0,  999.0,  -21.3,  999.0,  -21.6
2000/12/28 07:20,  999.0,    1.1,   -0.0,    4.0,    1.5,    0.6,    0.0,   -0.7,   -3.7,   -1.8,   -2.2,   -2.0,  999.0,  999.0,  999.0,  999.0,  999.0,  999.0,  999.0,  999.0,  999.0,  999.0,  999.0,  999.0,  999.0,  -21.2,  999.0,  999.0,  999.0,  -20.7,  999.0,  999.0,  -21.1,  999.0,  999.0,  -21.9,  999.0,  999.0,  999.0,  999.0,  999.0,  999.0,  999.0,  999.0,  999.0,  999.0,  999.0,  999.0,  999.0,  999.0,  999.0,  999.0,  999.0,  999.0,  999.0,  999.0,  999.0,  999.0
2000/12/28 07:30,  999.0,    0.4,    1.4,    1.1,    0.8,    0.4,    0.0,   -1.5,   -2.7,   -3.1,   -5.1,  999.0,    0.0,   -3.0,   -1.0,   -1.8,  999.0,  999.0,   -2.3,  999.0,  999.0,  999.0,  999.0,  999.0,  -21.4,  -22.1,  999.0,  999.0,  -21.7,  999.0,  -21.4,  -21.1,  999.0,  999.0,  -21.0,  -22.2,  -22.4,  -22.7,  999.0,  999.0,  999.0,  999.0,  999.0,  999.0,  999.0,  999.0,  999.0,  999.0,  999.0,  999.0,  999.0,  999.0,  999.0,  999.0,  999.0,  999.0,  999.0,  999.0
2000/12/28 07:40,  999.0,   -0.4,   -1.2,   -1.2,    0.2,   -0.3,    0.7,    0.3,    2.1,   -1.2,   -2.9,   -1.9,   -3.7,   -2.7,   -2.7,  999.0,  999.0,  999.0,  999.0,  999.0,  999.0,  999.0,  999.0,    0.0,  -17.1,  -20.2,  -18.0,  -16.9,  -19.2,  -17.7,  -17.2,  -15.4,  -14.3,  -13.7,   -1.4,    6.5,   17.1,   -8.8,    6.8,   -6.7,   -7.0,   -1.5,  999.0,   12.8,   -1.6,   -0.9,    6.9,   -0.4,    6.7,   -0.5,   -0.0,   13.7,    6.7,   -0.6,   -0.7,   -0.4,   -0.8,   -0.3
2000/12/28 07:50,  999.0,   -1.5,   -2.9,   -1.9,   -0.8,    1.4,    1.9,    1.5,    2.3,    1.5,   -0.5,   -0.5,  999.0,  999.0,   -2.4,  999.0,  999.0,  999.0,  999.0,   -3.0,  999.0,  999.0,  999.0,   -1.3,  -11.8,  -19.5,  -18.8,  -16.5,  -15.8,  -14.8,  -12.5,   -8.7,  -10.7,   -9.3,   -2.9,   -6.9,   -5.5,   -4.5,   -1.6,   -2.6,   -1.2,   -1.1,   -0.7,   -0.4,    4.9,    0.2,   -0.6,   -0.6,  999.0,   -0.8,   -1.3,   -1.7,   -6.4,  -22.3,   -0.3,   -0.8,   -1.0,   -0.9
2000/12/28 08:00,  999.0,   -1.3,   -1.0,   -0.5,   -1.3,   -3.1,   -1.1,    0.5,    2.8,    1.1,    1.3,    0.8,    0.4,  999.0,   -0.2,   -0.4,  999.0,  999.0,  999.0,  999.0,  999.0,  999.0,   -1.0,  999.0,  -18.6,  -19.4,  -18.2,  -16.8,  -17.4,  -18.3,  -13.2,  -22.0,  -10.6,   -9.4,  -15.4,   -7.0,   -6.0,   -4.5,   -3.2,   -2.2,   -1.1,   -0.5,  999.0,   -0.9,   -0.9,   -1.3,   -0.6,   -0.5,   -1.4,  999.0,   -0.9,   -0.6,   -0.6,   -0.9,   -0.4,   -7.2,  -13.1,  999.0
2000/12/28 08:10,  999.0,   -1.5,   -1.1,    1.2,    3.3,    1.6,    5.9,    2.8,    1.3,    0.5,    1.3,   -2.6,  999.0,  999.0,   -3.9,   -3.0,  999.0,  999.0,  999.0,  999.0,  999.0,  999.0,  999.0,  999.0,  -19.9,  -18.3,  -17.7,  -15.6,  -14.7,  -13.5,  -11.7,  -10.2,   -9.0,   -6.7,   -4.8,   -3.9,   -2.6,   -1.2,   -0.9,   -0.6,   -1.0,   -1.0,   -0.8,  999.0,   -0.6,   -1.1,   -0.8,   -1.2,   -0.9,   -0.1,   -0.6,   -0.9,   -0.5,   -0.6,   -0.5,   -1.0,   -0.1,   -0.5
2000/12/28 08:20,  999.0,  999.0,   -1.5,   -0.8,    0.7,    1.4,    2.4,    1.7,    3.1,    2.6,   -0.3,  999.0,  999.0,  999.0,  999.0,  999.0,  999.0,  999.0,  999.0,  999.0,  999.0,  999.0,  999.0,  999.0,  999.0,  -19.2,  -17.8,  -16.9,  -15.1,  -13.7,  -12.2,  -11.1,   -9.7,   -8.9,   -6.5,   -5.6,   -6.1,   -3.6,   -3.3,   -0.5,   -1.4,   -1.1,   -0.7,   -0.1,   -0.2,   -0.7,   -0.4,   -0.5,   -0.6,   -0.7,   -0.8,   -0.6,   -1.1,   -0.8,   -0.4,    0.0,    0.3,   -0.5
2000/12/28 08:30,  999.0,   -1.4,   -1.3,   -0.5,    0.7,    2.8,    2.1,    0.6,   -0.3,    0.4,  999.0,  999.0,  999.0,  999.0,  999.0,  999.0,  999.0,   -5.0,  999.0,  999.0,   -3.1,   -2.6,  -16.6,  -20.0,  -14.6,  -14.6,  -16.8,  -14.9,  -13.5,  -12.3,  -10.3,   -9.0,   -7.5,   -7.2,   -4.2,  999.0,   -2.5,   -2.9,   -0.9,   -1.0,   -1.0,  -17.7,   -0.6,   -4.4,  999.0,   -0.6,   -0.7,   -5.4,   -0.8,   -0.5,   -3.3,   -0.8,  -16.9,  -12.4,   -0.8,   -0.5,   -1.0,  -20.3
2000/12/28 08:40,  999.0,   -1.0,   -0.9,   -1.2,   -0.5,    0.9,    1.5,    1.4,   -0.0,    0.1,   -4.1,   -1.5,  999.0,  999.0,  999.0,  999.0,  999.0,  999.0,  999.0,  999.0,   -2.0,   -2.2,   -3.6,  -21.2,  -20.0,  -19.6,  -20.5,  -19.5,  -14.7,  -13.3,  -11.7,   -9.9,  -23.6,   -6.8,   -5.5,   -4.6,    1.8,   -9.2,   -1.1,   -0.3,   -0.5,   -0.9,  -10.5,   -0.6,   -0.9,   -1.2,  -10.7,   -0.9,   -1.0,   -5.0,   -0.7,   -2.9,  -19.4,   -0.5,   -0.4,   -0.4,   -1.1,   -1.2
2000/12/28 08:50,  999.0,   -0.5,   -0.7,    0.4,    1.3,    0.8,   -0.2,   -0.8,   -1.7,    0.1,   -1.6,  999.0,   -3.5,   -1.3,  999.0,  999.0,  999.0,  999.0,  999.0,  999.0,  999.0,  -20.1,  -21.3,  -21.4,  -20.5,  -20.2,  -18.3,  -15.5,  -13.7,  -11.8,   -9.7,   -6.8,   -8.4,   -4.1,   -0.9,   -3.3,    0.3,   -0.5,   -0.5,   -0.2,   -0.5,   -0.3,   -0.1,   -0.9,  999.0,   -0.8,   -1.0,   -1.1,   -1.3,   -0.7,   -0.7,   -1.0,   -0.6,   -0.6,   -0.5,   -0.2,   -0.7,   -0.8
2000/12/28 09:00,  999.0,   -1.8,   -1.0,   -0.2,   -0.3,    0.6,    0.4,   -0.1,   -0.1,    0.8,   -1.2,   -2.1,   -2.5,   -1.3,  999.0,  999.0,  999.0,  999.0,  999.0,  999.0,  999.0,  999.0,  999.0,  -20.2,  -20.0,  -17.6,  -16.6,  -14.4,  -13.2,  -11.8,  -11.0,   -7.5,   -7.6,   -3.7,   -4.3,   -2.8,   -3.5,   -2.0,   -2.6,   -0.8,   -0.8,   -0.7,   -0.6,   -0.9,   -0.5,   -0.6,   -0.7,   -0.7,   -0.9,   -1.0,   -0.9,   -0.1,   -1.5,   -0.9,   -0.8,   -0.7,   -0.7,   -0.7
2000/12/28 09:10,  999.0,   -2.1,   -2.0,   -1.2,    0.8,   -0.0,    1.2,    0.9,   -0.9,   -1.4,   -1.8,   -4.1,   -5.0,  999.0,   -6.9,  999.0,  999.0,  999.0,  999.0,  999.0,  999.0,  999.0,  -20.6,  -19.0,  -21.0,  -17.3,  -14.5,  -13.8,  -11.5,  -10.0,   -6.6,   -7.1,   -4.4,   -2.2,   -1.0,   -0.7,   -0.7,   -0.4,   -0.8,   -1.0,   -1.0,   -1.1,   -0.8,   -0.7,   -0.5,   -0.8,   -0.6,   -0.6,   -0.5,   -0.3,   -0.5,   -0.9,  999.0,   -0.9,   -0.8,   -0.5,   -0.5,   -0.0
2000/12/28 09:20,  999.0,   -2.0,   -0.8,    0.5,    1.1,    0.8,    1.6,    1.5,    0.2,   -1.0,   -0.1,   -1.3,   -2.5,   -3.3,   -4.0,   -6.4,  999.0,  999.0,  999.0,  999.0,  999.0,  -17.9,  -17.6,  -14.9,  -16.5,  -14.7,  -12.6,  -10.4,   -9.2,   -8.6,   -7.2,   -4.7,   -3.1,   -2.0,   -1.4,   -1.2,   -0.6,   -0.7,   -0.8,   -0.4,   -0.3,   -0.7,   -0.4,   -1.3,   -0.8,   -0.5,   -0.5,   -0.2,   -0.6,   -0.7,   -0.5,   -1.0,   -0.3,   -0.6,   -0.8,   -0.2,   -1.1,  999.0
2000/12/28 09:30,  999.0,   -0.7,   -0.8,   -1.1,   -0.4,    0.6,    1.1,    1.3,    1.1,   -0.6,   -0.7,   -0.7,   -1.8,   -2.7,  999.0,  999.0,  999.0,  999.0,  999.0,  999.0,  999.0,  999.0,  999.0,  -10.9,  999.0,   -8.9,   -8.2,   -6.7,   -5.3,   -4.5,   -3.7,   -1.8,   -1.5,   -0.9,   -0.4,   -0.7,   -0.6,   -0.8,   -0.9,   -0.8,   -1.0,  999.0,   -0.7,   -0.6,   -0.9,   -0.6,   -0.8,   -0.9,   -0.7,   -0.9,   -0.7,   -0.5,   -0.7,   -0.5,   -1.1,   -0.8,   -0.1,   -0.9
2000/12/28 09:40,  999.0,   -1.0,   -1.3,   -1.2,   -0.8,   -0.0,    0.5,    1.0,   -0.2,   -0.2,   -0.1,    1.2,    0.4,   -0.6,   -1.9,  999.0,  999.0,  999.0,  999.0,  999.0,  999.0,  999.0,  -13.1,  -12.1,  -11.8,  -10.3,   -9.5,   -8.3,   -6.5,   -6.2,   -5.2,   -4.4,   -2.4,   -0.4,   -1.2,   -0.5,   -0.5,   -0.5,   -0.7,   -0.5,   -0.4,   -0.5,   -0.4,   -1.0,   -0.7,   -0.7,   -0.2,   -0.7,   -0.8,   -1.0,   -0.7,   -0.7,   -0.5,   -0.9,   -1.1,   -1.1,   -1.1,   -1.1
2000/12/28 09:50,  999.0,    0.0,   -1.3,   -1.3,   -0.7,   -0.1,    0.8,    0.6,   -1.1,   -2.2,    0.2,    0.4,    1.2,    0.6,    0.4,  999.0,  999.0,  999.0,  999.0,  999.0,  -10.9,   -9.5,  -10.7,   -8.3,   -8.4,   -2.3,   -4.5,   -1.0,   -7.7,   -3.2,   -2.3,   -1.9,   -1.9,   -0.9,   -0.8,   -0.5,   -0.8,   -0.4,   -0.8,   -1.3,   -1.0,   -0.7,   -0.9,   -1.0,   -0.3,   -1.0,   -0.8,   -0.8,   -0.9,   -0.6,   -0.2,   -0.4,   -1.0,   -1.3,   -0.9,   -0.9,   -0.5,   -0.7
2000/12/28 10:00,  999.0,   -0.2,   -1.4,   -1.1,   -0.7,   -0.3,    0.2,    0.3,   -0.3,   -1.7,   -1.9,   -1.9,    1.5,  999.0,   -0.6,  999.0,  999.0,  999.0,  999.0,  999.0,  999.0,  -13.4,  -11.2,  -10.4,   -8.8,   -2.9,   -5.0,   -2.8,   -3.5,   -2.1,   -1.8,   -1.1,   -0.1,   -0.5,   -0.4,   -1.1,   -0.9,   -0.7,   -0.8,   -0.8,   -0.7,   -1.0,   -0.3,   -0.8,   -0.5,   -0.3,   -0.7,   -1.0,   -0.5,   -0.7,   -0.5,  999.0,   -0.9,   -0.6,   -0.8,   -0.2,   -0.4,   -0.4
2000/12/28 10:10,  999.0,    0.4,    1.2,   -0.2,   -0.3,   -0.0,    0.3,   -0.7,   -1.2,   -1.4,   -1.9,   -3.1,   -1.7,  999.0,    0.2,  999.0,  999.0,  999.0,  999.0,  999.0,  999.0,  -12.6,  -10.9,   -9.6,   -8.1,   -7.1,   -4.2,   -3.6,   -2.5,   -1.1,   -0.7,   -0.6,   -1.0,   -0.5,   -0.9,   -0.6,   -0.5,   -0.5,   -0.8,  999.0,   -0.6,   -0.7,   -0.7,   -0.7,   -0.6,   -0.2,   -0.2,   -0.7,   -0.7,   -0.7,   -0.7,   -0.8,   -0.4,   -0.6,   -0.4,   -0.7,   -0.6,   -0.4
2000/12/28 10:20,  999.0,    0.1,   -0.7,   -0.4,    0.1,    0.5,    0.7,    0.3,   -1.4,   -2.1,   -2.9,   -2.2,   -5.0,   -3.3,   -2.8,  999.0,  999.0,  999.0,  999.0,  999.0,  999.0,  999.0,  -11.1,   -9.0,   -6.9,   -5.6,   -3.0,   -1.5,   -1.1,   -0.4,   -0.9,   -0.7,   -0.6,   -1.1,   -0.9,   -0.6,   -0.6,   -0.8,   -0.7,   -0.5,   -0.7,   -1.0,   -0.7,   -0.7,   -0.5,   -0.5,   -0.6,   -0.7,  999.0,   -0.9,   -0.9,   -0.8,   -0.8,   -1.2,   -1.3,   -0.6,   -0.9,   -1.0
2000/12/28 10:30,  999.0,    0.3,    0.0,    0.5,   -0.5,    0.5,    0.7,   -0.1,   -0.0,   -1.0,   -0.7,   -1.0,   -1.9,   -3.2,   -3.2,  999.0,  999.0,   -3.1,   -0.6,  999.0,  999.0,  999.0,  -10.1,   -7.4,  -15.7,   -4.5,  -19.6,   -1.4,  999.0,  -35.7,  -15.1,   -0.4,   -7.8,  -11.1,   -1.0,  -10.5,  -41.5,  999.0,    2.5,    7.7,   -0.6,    4.9,   10.7,    3.6,   -2.7,   -0.6,   -1.0,   -4.7,   -0.7,   -0.6,   -0.8,   -1.2,   -0.7,   -7.3,   -0.6,   -0.7,  -21.5,  -21.1
2000/12/28 10:40,  999.0,    0.3,   -0.5,   -0.8,   -0.8,   -0.1,    0.0,    0.3,    1.7,   -0.2,    0.4,   -0.5,   -1.3,   -2.3,   -2.4,   -0.6,    0.1,    0.5,   -0.5,  999.0,    4.6,  999.0,  999.0,   -7.7,  999.0,   -2.8,  999.0,   -0.9,  999.0,   -0.8,   -0.6,  999.0,   -0.5,  999.0,  999.0,   41.5,   41.2,   42.1,   -0.4,   20.4,   41.6,   27.8,   -1.1,   20.8,  999.0,   42.4,   42.0,  999.0,   42.0,  999.0,  999.0,    9.3,   20.8,  999.0,   42.3,   20.4,   -0.3,   10.0
2000/12/28 10:50,  999.0,   -3.0,   -2.5,   -0.0,    0.4,    0.1,    0.3,    1.0,    0.8,    1.2,   -0.9,   -0.6,   -1.6,   -3.1,   -4.1,   -4.3,  999.0,  999.0,  999.0,  999.0,  999.0,  -24.8,  -26.8,  -27.8,  999.0,  -30.3,  999.0,  -32.1,  -34.4,  999.0,    6.2,  999.0,  -38.7,    2.1,    8.8,  -21.5,   21.6,  -13.5,   -3.8,   -1.4,    6.3,   -0.2,   -6.5,  -20.3,  -15.0,    0.8,    1.0,  -11.5,  -14.5,  -11.6,    0.3,  -12.2,   -6.1,   -0.6,    1.3,    0.2,  -10.4,   -5.1
2000/12/28 11:00,  999.0,   -1.8,   -0.5,    1.7,    1.3,    0.1,   -0.5,   -0.3,   -0.7,   -0.7,   -0.9,   -1.2,   -0.9,   -1.2,   -2.3,   -4.0,  999.0,    0.6,    0.2,  999.0,  999.0,  999.0,  999.0,  999.0,  999.0,   11.4,    9.8,    7.6,    2.8,    7.5,    1.7,    4.9,    4.0,    2.6,    1.9,    3.7,    1.2,    0.8,    0.3,    0.6,    1.1,    0.6,    0.5,    0.3,    1.1,    0.6,    0.8,    0.8,    0.9,    1.4,    1.0,    1.0,    0.7,    0.4,    0.6,    0.8,    0.4,    0.2
2000/12/28 11:10,  999.0,  999.0,   -0.7,   -0.4,   -0.1,   -1.1,   -0.4,   -0.2,    0.1,    0.1,    0.0,   -1.7,   -1.4,   -1.0,   -1.9,   -2.5,  999.0,  999.0,  999.0,  999.0,  999.0,  999.0,  999.0,  999.0,  999.0,   41.0,  999.0,  999.0,    6.2,   41.8,   22.9,   14.0,   22.4,    1.2,    0.7,    6.8,   18.3,    8.1,   25.7,   13.8,   10.9,    0.9,   10.3,   12.2,   -2.7,    0.4,    0.6,    0.9,   -3.0,    0.5,    1.1,    0.5,    1.8,   12.1,   40.6,   10.9,    0.8,   13.9
2000/12/28 11:20,  999.0,  999.0,    1.0,    2.4,    1.6,    1.3,   -0.6,   -0.7,   -1.0,   -0.8,   -1.0,   -1.2,   -1.3,  999.0,  999.0,  999.0,  -20.6,  999.0,  -21.1,  -21.4,    2.7,  -19.9,  -15.3,   -7.9,  -19.0,  -21.5,  -18.0,  999.0,  -11.4,   -6.0,    0.5,  -10.7,  999.0,   -0.9,   -9.7,   -9.7,  -14.3,   -9.3,  -21.3,  -10.8,  -10.9,   -9.1,   -9.1,   -5.8,   -7.0,   -6.8,   -1.3,   -0.9,  999.0,   17.9,   -4.6,   -0.1,   20.3,   41.4,   42.1,   20.8,   -1.1,  999.0
2000/12/28 11:30,  999.0,   -0.8,   -1.4,   -3.2,   -0.6,   -1.1,   -1.6,   -0.3,    1.1,    0.8,    0.5,   -1.2,   -1.0,   -2.0,  999.0,  999.0,  999.0,  999.0,  999.0,  999.0,  -18.5,  -35.7,  999.0,  -15.7,  999.0,  -13.1,  -20.6,  999.0,  999.0,   -8.8,   -8.1,   -6.7,  -23.5,  -17.2,  -16.4,  -14.7,    1.9,   -3.3,   -0.7,    5.3,   13.5,   -0.7,   10.2,    5.6,    3.0,   -1.9,   -5.2,   41.6,    9.8,   -0.7,   13.3,   -8.8,  999.0,  999.0,    1.4,    2.0,   -0.2,  -21.0
2000/12/28 11:40,  999.0,   -0.1,   -0.4,   -0.2,   -0.3,   -1.9,   -2.3,   -1.6,   -0.8,   -0.5,    0.4,   -1.1,   -1.8,   -2.1,  999.0,   -4.1,  999.0,   -3.6,   -2.3,  999.0,  999.0,  999.0,  -18.1,   -9.7,  999.0,   -3.4,  -26.4,  -17.6,  -17.9,  -25.4,  -16.8,  -20.9,  -15.6,  -15.2,  -15.1,  -12.4,   -9.7,   -7.1,   -4.5,   -0.3,   -0.8,   -0.1,   -1.1,   -0.7,  999.0,   -0.8,   -1.0,   -0.7,  999.0,    4.7,   -8.9,  999.0,   11.7,   11.8,   -3.1,   11.5,  -42.0,  999.0
2000/12/28 11:50,  999.0,    1.9,    1.7,   -2.1,   -3.0,   -2.8,   -2.3,   -1.6,   -0.6,    0.6,   -0.7,   -2.1,   -4.4,   -1.3,  999.0,  999.0,  999.0,  999.0,  -20.8,  -19.8,  -20.7,  -20.7,  -21.9,  -14.7,  -21.1,  -13.7,    8.1,  -19.5,   -0.3,  -12.4,  -39.0,   20.5,   18.9,   20.3,   11.7,    1.8,   -2.8,    1.9,  -12.4,  -21.2,  -10.9,   -9.9,   20.1,   37.1,  999.0,  999.0,    7.5,   -1.6,  999.0,    0.7,    0.7,   16.3,   14.5,    6.4,    5.9,    1.0,    3.1,    2.9
2000/12/28 12:00,  999.0,    0.0,    0.5,   -0.4,   -0.4,   -0.7,   -0.4,   -0.9,   -1.4,    0.0,   -0.7,   -0.8,   -1.5,  999.0,  999.0,  999.0,  999.0,  999.0,  -22.4,  -23.6,  -26.4,  -16.6,  -22.9,  -12.9,  -24.8,  -19.7,  -23.0,  999.0,   -3.1,  -15.8,  999.0,   -0.6,  -14.9,   -0.9,  999.0,  999.0,  999.0,   -3.1,   -4.4,   -6.0,  -17.0,  -21.8,  999.0,  999.0,  999.0,  999.0,  999.0,  999.0,  999.0,  999.0,  999.0,  999.0,  999.0,    7.3,   11.0,    9.1,    5.5,    4.1
2000/12/28 12:10,  999.0,    2.2,    4.3,    2.0,    6.2,    2.6,    2.7,    1.1,    0.7,   -0.3,   -0.3,   -0.8,   -1.1,   -2.0,  999.0,  999.0,  -18.0,   20.4,   -2.5,   10.4,  999.0,   18.5,   -5.8,  -17.4,  -13.3,   -7.5,  -19.3,  -14.1,  -20.8,  -34.8,    0.5,  -30.9,    0.3,    0.8,  -13.8,   -2.9,  999.0,  999.0,  999.0,  999.0,  999.0,  999.0,  999.0,  -41.8,  -42.0,  -41.6,  -42.1,  999.0,  999.0,  999.0,   17.4,  -42.1,  999.0,   40.3,  -10.1,   -7.0,  -41.7,    0.0
2000/12/28 12:20,  999.0,   -0.3,    1.5,    0.9,    1.0,   -0.6,    0.5,    1.2,    0.8,    0.9,    0.4,    0.2,   -0.6,   -1.1,   -1.8,   -1.8,   -1.3,  999.0,  999.0,  999.0,  999.0,  999.0,  999.0,  999.0,   -1.0,  999.0,   -1.0,  -29.9,  -20.5,  -21.4,  -25.5,  -38.4,  -26.4,  -40.1,  -27.1,  -40.8,  -28.0,  -28.1,  -28.1,  -41.5,  -41.5,  -34.9,  -35.4,  -28.1,  -28.4,  999.0,  -30.2,  -36.8,  -41.8,  -41.7,  -42.2,  -40.6,  -34.6,  -42.0,  -31.7,  -31.4,  -31.8,  -28.0
2000/12/28 12:30,  999.0,    2.7,    1.7,    3.4,    1.4,    0.1,   -1.0,   -0.9,    0.4,   -0.2,   -0.6,   -0.9,   -1.2,   -1.3,   -1.4,   -1.1,   -3.3,  999.0,  999.0,  999.0,  999.0,  999.0,  999.0,  999.0,  -30.8,  -36.3,  -27.6,  -36.4,  -30.4,  -27.0,  -25.5,  -19.0,  -34.3,  -41.9,  -34.6,  -27.5,  -34.7,  -30.7,  -27.5,  -34.9,  -41.8,  -41.6,  -41.9,  -20.4,  -20.4,  -34.6,  -31.1,  -35.1,  -31.1,  -34.5,  -41.8,  -42.0,  -34.8,  -41.6,  -34.6,  -34.6,  -27.9,  -34.8
2000/12/28 12:40,  999.0,   -0.2,    1.3,    1.5,    1.0,    1.0,    0.2,    0.2,    0.2,   -0.7,   -0.6,   -0.8,   -1.5,   -2.0,   -2.3,  999.0,   -3.4,  999.0,  999.0,  999.0,  999.0,  999.0,  999.0,  999.0,  -35.4,  -35.5,  -33.6,  -34.6,  -39.8,  -38.9,  -38.2,  -40.1,  -33.7,  -40.9,  -20.0,  -27.3,  -34.8,  -41.7,  -31.2,  -42.5,  -27.7,  -20.3,  -34.6,  -41.9,  -27.3,  -41.7,  -20.8,  -41.5,  -27.5,  -41.9,  -42.2,  -27.7,  -34.7,  -42.0,  -27.6,  -41.7,  -27.8,  -20.6
2000/12/28 12:50,  999.0,    2.5,    1.9,    0.0,    1.8,    1.3,    1.2,    0.2,   -0.3,   -0.3,    0.2,    0.8,   -0.0,   -0.8,   -2.3,   -0.6,   -2.9,   -2.1,  999.0,  -19.9,  999.0,  999.0,   -7.6,  999.0,  -16.0,  -23.4,  -16.2,  -19.1,  -19.3,  -19.6,  -20.5,  -21.3,  -17.2,  -27.8,  -30.9,  -36.6,  -29.8,  -30.6,  -31.4,  -41.9,  -31.3,  -41.6,  -27.1,  -13.8,  -21.1,  -23.4,  -21.2,  -23.0,  -41.2,  -25.0,  -33.7,  -20.8,  -34.8,  -26.2,  -21.2,  -21.8,  -42.1,   11.9
2000/12/28 13:00,  999.0,    0.8,   -1.0,   -5.6,  999.0,   -2.0,    0.7,    1.5,    0.8,   -1.0,   -1.9,   -1.9,   -1.8,   -1.8,   -0.6,   -0.1,   -1.5,   -0.6,   -1.5,   -1.7,  999.0,  999.0,   22.9,   23.1,  999.0,  999.0,  999.0,  -25.9,  -27.7,  -29.3,  -30.7,  -32.4,  -27.1,  -35.8,  -36.3,  -24.6,  -41.2,  -29.6,  -27.2,  -41.5,  -34.8,  -31.5,  -27.9,  -41.9,  -27.6,  -41.6,  -41.7,  -41.9,  -41.5,  -42.0,  -41.8,  -42.0,  -42.0,  -41.7,  -41.6,  -41.7,  -41.9,  -42.1
2000/12/28 13:10,  999.0,    1.0,    0.9,    0.9,    0.2,    1.0,    1.1,    0.1,   -1.3,   -3.3,   -3.7,   -2.1,   -1.3,   -1.1,   -2.1,  999.0,   -6.0,  999.0,  999.0,  999.0,  999.0,  999.0,  999.0,  999.0,  -24.4,  -22.8,  -21.6,  -23.6,  -23.7,  -24.0,   -4.1,  -19.6,  -18.1,  -19.2,  -20.1,  -32.5,  -41.2,  -42.1,  -37.8,  -34.1,  -41.7,  -36.3,  -36.7,  -34.8,  -41.9,  -41.9,  -41.4,  -41.7,  -41.6,  -41.9,  -41.8,  -41.6,  -41.7,  -41.3,  -41.6,  -42.2,  -41.8,  -42.0
2000/12/28 13:20,  999.0,    2.8,    0.6,   -1.0,   -3.0,   -0.8,    0.5,    0.2,   -0.2,   -0.6,   -1.2,   -2.3,   -1.5,   -0.6,   -1.4,   -2.4,  999.0,   -2.9,  999.0,  999.0,  999.0,  999.0,  999.0,  999.0,  -25.7,  -28.1,  999.0,  -33.4,  -34.7,  -36.7,  -39.1,  -41.2,  -42.4,  -41.4,  -41.9,  -41.8,  -41.8,  -41.8,  -41.9,  -41.6,  -42.1,  -41.9,  -41.9,  -42.0,  -41.7,  -41.8,  -41.8,  -41.8,  -41.9,  -41.7,  -41.8,  -41.7,  -41.9,  -41.6,  -41.5,  -42.0,  -41.5,  -41.4
2000/12/28 13:30,  999.0,   -0.6,    2.1,    0.5,   -0.8,   -0.2,    0.7,   -0.1,   -1.4,   -2.5,   -3.3,   -3.3,   -2.5,   -1.8,   -3.0,   -3.6,   -4.3,   -0.6,   -1.0,  999.0,   -0.0,  999.0,  999.0,  -20.3,  -26.7,  -28.8,  -30.3,  -30.5,  -37.2,  -33.4,  -31.1,  -35.8,  -40.0,  -38.5,  -39.5,  -41.2,  -41.4,  -41.9,  -42.1,  -41.8,  -42.1,  -41.8,  -42.0,  -42.0,  -41.3,  -41.9,  -41.9,  -42.2,  -41.7,  -42.4,  -41.6,  -42.2,  -42.2,  -42.5,  -42.5,  -42.3,  -41.7,  -42.2
2000/12/28 13:40,  999.0,    3.5,    3.2,    6.1,    1.2,    0.8,    2.7,   -0.1,   -0.1,    0.6,   -0.2,    0.3,    0.3,   -0.6,   -0.8,   -1.5,   -1.4,   -2.4,    0.9,  999.0,  999.0,  999.0,  999.0,  999.0,  -28.9,  -31.5,  -33.5,  -35.3,  -37.5,  -39.6,  -42.3,  -41.4,  -41.7,  -41.8,  -41.9,  -42.0,  -41.6,  -41.6,  -42.1,  -42.2,  -42.2,  -42.0,  -41.9,  -41.8,  -41.9,  -41.9,  -42.2,  -41.7,  -41.8,  -41.5,  -41.9,  -41.6,  -41.3,  -41.6,  -42.1,  -41.7,  -42.4,  -42.2
2000/12/28 13:50,  999.0,  999.0,    2.1,   -0.3,   -2.1,   -3.2,   -1.1,   -1.0,   -0.6,   -1.3,   -1.2,   -0.9,   -1.3,   -1.2,   -1.0,   -1.1,   -1.7,   -2.4,   -2.8,   -3.0,   -3.0,   -4.2,   -2.5,   -3.8,  -18.3,  -21.6,  -28.8,  -26.9,  -18.5,  -34.4,  -35.7,  -38.9,  -36.9,  -38.5,  -41.9,  -42.1,  -42.4,  -42.3,  -42.2,  -42.5,  999.0,  -42.1,  -41.9,  -42.3,  -41.9,  -41.7,  -42.0,  -41.8,  -42.1,  -41.9,  -41.7,  -42.5,  -41.7,  -41.7,  -42.0,  -42.0,  -41.3,  -41.7
2000/12/28 14:00,  999.0,   -2.6,   -1.6,   -2.0,   -1.6,   -2.2,   -1.5,   -1.3,   -1.6,   -1.0,   -0.2,   -0.2,   -0.3,   -0.7,   -1.1,   -1.1,   -0.9,   -0.4,    0.2,   -1.8,   -3.0,    2.6,  999.0,  999.0,  -16.3,  -20.1,    1.3,  -17.3,  -23.4,  -20.5,  -22.8,  -23.5,  -33.2,  -29.4,  -35.2,  -26.5,  -30.1,  -41.4,  -23.9,  -35.5,  -25.0,  -21.5,  -15.6,  -38.5,  -30.5,  -29.9,  -29.2,  -21.0,  -23.7,  -22.8,  -28.1,  -19.9,  -14.3,  -25.3,  -17.9,  -29.1,  -31.9,  -22.4
2000/12/28 14:10,  999.0,    3.1,   -4.1,    0.5,   -0.5,   -2.3,   -0.4,    1.1,    0.7,    1.0,   -0.0,    0.7,    1.0,    0.1,   -0.2,   -0.6,   -1.2,   -2.4,   -1.5,   -2.6,   -4.1,   -3.3,   -4.4,   -4.8,   -8.2,   -5.5,   -2.0,   -2.6,   -1.0,    1.7,   -3.0,  999.0,   -1.1,   -3.7,   -4.3,  999.0,  999.0,  999.0,  999.0,  -17.7,  999.0,  -17.6,  -18.2,  -18.8,  -18.4,  -19.2,  -20.4,  -21.6,  -24.6,  -25.3,  -30.5,  -33.0,  999.0,  -34.8,  -40.8,  -39.7,  -41.7,  -21.8
2000/12/28 14:20,  999.0,   -1.1,    1.0,   -0.5,   -3.6,   -1.2,    0.7,    2.4,    2.5,    3.0,    4.2,    3.7,    3.2,    4.1,    5.1,    5.2,    5.8,    3.7,    4.8,   -1.2,   -0.7,    0.3,   -2.6,   -2.1,   -2.2,   -1.1,   -2.9,   -5.5,   -6.0,   -7.1,   -8.1,   -7.6,   -7.2,   -7.5,   -8.6,   -7.8,  -10.7,  -12.2,  -13.7,  -18.9,  -18.4,  -18.8,   -9.0,  999.0,  -17.5,  -17.6,  999.0,  -16.7,  -10.0,   -3.8,   -2.1,   13.3,   -0.4,   20.0,   10.2,   17.7,   20.4,   13.4
2000/12/28 14:30,    6.2,    1.5,    1.1,   -1.0,   -6.2,   -3.5,   -3.3,   -3.8,   -3.8,   -2.3,   -1.7,   -4.0,   -1.9,   -2.8,   -1.9,   -1.7,   -2.8,   -6.2,  -11.1,   -9.2,   -2.6,   -5.0,    6.4,   -7.0,  -21.9,  -17.8,  -13.9,  -14.8,  -15.1,   -7.6,   -9.1,   -9.1,   -7.1,   -9.8,   -9.1,   -8.1,   -7.6,  -11.2,  -13.7,  -10.4,   -8.4,   -4.7,   -1.0,   -2.8,    1.3,    4.6,   -3.3,  -12.9,   -4.3,   -3.2,   -2.0,   -0.2,   -1.6,   -1.3,    3.9,    0.3,   -0.5,    3.6
2000/12/28 14:40,  999.0,   -1.7,    1.2,   -1.0,    4.2,    5.4,    6.4,    8.0,    2.5,   -2.2,   -1.8,   -1.0,   -0.9,   -2.2,   -2.0,   -2.1,   -0.5,    1.8,    2.5,    3.4,   16.7,   -6.2,  -10.0,   -2.5,  -13.3,  -20.4,  -15.8,  -16.9,  -17.0,  -16.6,  -16.4,  -16.2,  -13.9,  -11.0,  -11.4,  -11.2,  -11.2,   -7.0,   -4.9,   -3.0,   -5.6,   -2.0,    0.1,    0.1,    0.1,   -0.9,   -2.3,   -4.2,   -5.1,   -7.9,  -16.9,   -9.0,   -7.6,   -9.3,   -6.8,   -7.9,   -4.3,   -2.5
2000/12/28 14:50,  999.0,    2.5,    0.2,   -2.5,   -2.3,   -2.7,   -3.0,    1.5,    3.3,    1.9,    5.8,    9.0,    5.1,    4.1,    4.4,    8.8,    8.5,    6.9,    6.9,    6.6,   -2.7,   -2.6,   -0.9,   -0.2,   -0.4,   -2.2,   -2.2,   -2.7,   -1.7,   -2.1,   -2.0,   -2.1,   -1.6,   -2.6,   -2.7,   -2.5,   -2.2,   -1.5,   -1.1,   -3.7,   -3.5,   -0.1,   -4.3,    1.2,    1.8,    3.2,  999.0,  -14.0,    0.8,  999.0,  999.0,  999.0,   41.7,  999.0,  999.0,  999.0,   41.5,  999.0
2000/12/28 15:00,  999.0,    2.6,  999.0,    2.3,    2.1,    1.7,    0.1,   -4.3,   -1.4,   -0.8,   -3.3,    0.2,   -1.2,   -2.9,   -2.6,   -4.2,   -3.4,   -3.2,   -4.5,   -5.3,   -6.1,   -6.7,  -20.8,  -16.7,  -15.1,   -0.5,  -10.8,   -5.1,  -10.5,  -11.6,  -19.4,  -16.5,   -8.6,  -13.6,  -13.3,   -9.5,   -8.3,   -8.4,   -6.3,  -14.4,   -5.5,   -5.1,   -7.5,   -5.4,   -0.8,   -6.5,   -7.4,  -11.0,   -0.9,  -12.6,   -8.6,   -9.2,  -14.6,  -10.4,  -10.8,  -17.1,  -12.0,  -12.4
2000/12/28 15:10,  999.0,  999.0,  999.0,  999.0,    7.4,   -6.0,  -12.6,  -13.4,  -14.6,  -18.8,  -23.9,  -24.1,  -16.8,  -10.4,   -9.6,   -7.5,   -6.0,   -9.4,   -7.0,   -9.3,  -12.5,  -12.7,  -11.6,  -14.0,  -11.2,   -7.9,   -0.7,    0.3,   -1.2,   -1.4,   -0.1,    4.6,    1.1,    0.7,    3.6,    9.3,    1.3,    5.4,    2.2,   -8.7,   -9.5,   -5.2,   -9.0,   -1.5,  -20.6,  -19.3,  -13.8,  999.0,  999.0,   -0.5,   -1.0,   -0.8,   -0.8,   -0.9,  999.0,  -42.0,  999.0,   -0.5
2000/12/28 15:20,  999.0,    6.6,    3.5,    3.7,    2.5,    2.0,    1.1,    1.3,   -2.7,   -4.2,   -2.1,   -6.8,   -9.1,   -6.2,   -3.5,    1.2,    1.6,    0.9,    1.1,    1.6,    2.3,    0.7,    1.6,    1.6,   -2.8,   -0.1,    1.4,   -1.4,   -1.2,   -1.6,   -1.9,   -0.6,    0.0,    1.1,   -0.8,    2.8,   -0.5,    3.5,    3.0,    4.6,   -0.2,   11.3,   -4.5,   -4.5,   11.7,  999.0,  -16.4,  -16.3,  -22.7,  -19.6,  -20.3,  -20.2,  -20.5,  -26.1,  -21.9,  -22.4,  -22.0,  999.0
2000/12/28 15:30,  999.0,   -3.2,   -4.1,   -3.3,   -5.0,    1.2,   -9.7,  -14.2,  -24.4,  -20.3,  -18.5,  -15.2,  -11.1,   -8.6,   -7.7,   -7.0,   -0.9,   -2.2,    2.2,    4.2,    3.4,    0.8,   -0.1,   -0.6,   -2.5,   -4.9,   -3.8,   -1.9,    0.4,   -2.4,   -4.4,   -5.8,   -8.0,  -14.6,   -7.4,  999.0,   -5.0,  999.0,  999.0,  999.0,  -23.1,  -22.0,  -21.6,  -21.8,  -23.5,  -25.5,  -25.3,  -25.8,  -26.6,  -25.7,  -25.1,  -25.6,  -27.1,  -25.3,  -25.3,  -25.1,  -19.1,  -24.7
2000/12/28 15:40,  999.0,    0.7,    2.6,    2.9,    2.1,    2.9,    2.7,    2.9,    3.0,    3.4,    3.5,    4.2,    5.2,    4.1,    2.1,    4.0,    4.5,    4.8,    3.4,    3.6,    3.6,    4.8,    4.7,    3.5,    2.9,    3.5,    3.3,    3.9,    3.9,    3.0,    1.5,   -0.4,   -0.5,   -0.6,   -0.6,   -0.4,   -0.4,    0.1,    0.4,   -0.0,    0.3,    0.6,    0.2,   -0.4,   -1.8,   -2.9,   -3.3,   -5.9,   -7.8,   -6.7,  -11.4,   -9.0,   -8.5,   -7.8,   -7.5,   -8.0,   -3.1,   -8.7
2000/12/28 15:50,  999.0,    1.7,    1.4,   -0.1,   -1.3,   -1.7,   -0.4,   -0.4,    0.1,   -0.0,   -0.5,   -2.0,   -2.8,   -3.0,   -2.6,   -2.7,   -1.9,   -1.8,   -1.3,   -0.5,    0.3,    1.0,   -0.5,   -0.9,   -1.0,   -1.0,   -0.6,   -0.7,   -0.4,   -0.5,   -0.9,   -0.2,    0.5,    1.5,    2.5,    3.2,    3.8,    4.2,    4.0,    4.1,    4.3,    5.9,    6.7,    7.5,    8.1,    7.9,    6.4,    5.2,    5.4,    5.2,    5.4,    4.5,    4.0,    3.8,    4.5,    2.0,    0.7,    2.1
2000/12/28 16:00,  999.0,    0.4,   -0.4,   -0.2,    0.8,    1.3,    1.6,    1.4,    0.8,    0.7,    1.5,    1.2,    1.2,    1.8,    2.5,    2.8,    2.0,    1.8,    2.6,    3.0,    0.9,    0.4,    0.9,    0.7,    0.1,   -1.2,   -2.0,   -1.6,   -0.1,   -1.0,   -1.4,    0.3,    1.5,    0.9,    2.0,   -1.4,   -2.8,   -3.4,   -0.5,   -2.6,   -2.8,   -3.3,   -3.6,   -3.0,   -2.2,   -1.7,   -1.3,   -4.6,   -4.7,   -4.3,   -4.2,   -4.4,   -3.5,   -2.6,   -2.1,   -1.7,   -1.6,   -1.4
2000/12/28 16:10,  999.0,   -0.3,   -1.1,   -1.4,   -0.6,    0.3,    0.8,    1.4,    1.4,    1.3,    0.2,   -0.9,   -1.7,   -1.3,   -1.4,   -1.7,   -1.6,   -1.7,   -1.6,   -1.7,   -2.1,   -2.7,   -3.0,   -3.5,   -3.4,   -2.8,   -2.4,   -2.4,   -2.1,   -2.0,   -2.5,   -2.9,   -2.5,   -2.5,   -2.3,   -2.3,   -2.1,   -1.9,   -1.3,   -0.6,   -0.5,   -0.3,   -0.2,    0.5,    1.1,    1.5,    1.5,    1.2,    0.7,    1.2,    1.8,    3.1,    4.1,    4.7,    5.5,    6.3,    6.3,    6.3
2000/12/28 16:20,  999.0,    0.6,    0.8,    2.0,    3.4,    3.2,    1.9,    1.0,    0.6,    0.8,    0.4,   -0.1,    0.4,    1.0,    1.4,    2.0,    2.2,    1.5,    1.4,    0.6,    0.3,   -0.3,   -0.4,   -1.0,   -1.4,   -2.2,   -2.3,   -2.3,   -1.7,   -1.3,   -0.8,   -1.0,   -1.1,   -1.5,   -1.8,   -1.9,   -2.4,   -3.4,   -3.7,   -4.0,   -4.2,   -4.6,   -5.0,   -5.0,   -5.1,   -4.1,   -2.4,   -0.9,   -0.3,    0.1,    0.1,    0.1,    0.3,    1.3,    2.2,    2.4,    2.4,    2.8
2000/12/28 16:30,  999.0,    0.0,    1.1,    1.6,    2.6,    2.8,    2.7,    2.1,    1.3,    0.7,    0.2,    0.1,    0.4,    0.9,    1.4,    1.8,    1.3,    1.0,    0.3,   -0.7,   -2.0,   -2.8,   -3.5,   -4.2,   -4.8,   -5.3,   -4.9,   -5.7,   -5.0,   -4.2,   -3.5,   -3.2,   -3.3,   -3.4,   -3.4,   -3.6,   -3.7,   -4.2,   -4.1,   -3.9,   -4.1,   -3.6,   -2.6,   -1.8,   -1.3,   -0.6,    0.4,    1.0,    1.0,    1.8,    0.9,    1.1,    2.3,    3.3,    4.0,    4.9,    4.0,    3.4
2000/12/28 16:40,  999.0,   -0.7,   -0.0,    0.6,    1.2,    1.7,    1.9,    2.3,    2.5,    2.3,    1.3,    0.2,   -0.2,   -0.0,   -0.4,   -0.6,   -0.6,   -0.8,   -0.3,    0.5,    1.1,    0.3,   -1.1,   -2.2,   -3.0,   -3.4,   -3.0,   -2.7,   -2.7,   -2.8,   -2.9,   -2.8,   -2.9,   -3.7,   -3.7,   -4.1,   -3.8,   -4.1,   -4.4,   -4.2,   -3.3,   -2.5,   -1.5,   -0.5,   -0.4,   -0.9,   -1.1,   -1.3,   -1.0,   -1.1,    0.0,    0.7,    0.6,    1.6,    0.0,    3.3,    1.9,    2.4
2000/12/28 16:50,  999.0,    0.1,   -0.8,   -2.6,   -0.8,    0.4,    0.6,    0.1,    0.3,    1.3,    1.5,    0.7,   -0.2,   -0.4,   -0.0,   -0.1,   -0.4,   -0.6,   -0.9,   -1.0,   -1.0,   -1.9,   -1.6,   -2.5,   -2.7,   -2.9,   -3.7,   -3.2,   -3.7,   -4.0,   -4.1,   -3.9,   -4.4,   -4.8,   -6.1,   -5.4,   -4.9,   -5.6,   -6.8,   -7.2,   -5.9,   -4.7,   -3.6,   -3.6,   -3.9,   -3.7,   -2.5,   -0.7,    1.9,    3.2,    4.4,    5.9,    7.5,    8.1,    7.9,    7.9,    8.5,    8.3
2000/12/28 17:00,  999.0,    1.3,    0.7,    0.3,    0.2,    0.1,    0.2,    0.3,    0.6,    1.0,    1.2,    0.9,   -0.4,   -0.9,   -1.0,   -0.9,   -0.6,   -0.7,   -0.6,   -1.4,   -1.1,   -1.6,   -2.4,   -2.9,   -2.8,   -2.6,   -2.1,   -2.7,   -2.9,   -3.2,   -3.1,   -3.1,   -2.3,   -3.2,   -3.2,   -2.2,   -2.0,   -2.8,   -3.1,   -3.3,   -2.9,   -2.0,   -1.2,   -0.8,   -0.1,    2.1,    4.1,    5.6,    7.6,    7.6,    7.6,    8.4,    9.5,    7.3,    7.9,    6.8,    5.9,    5.8
2000/12/28 17:10,  999.0,   -0.5,    0.1,    0.9,    0.6,    0.4,    0.4,    0.1,   -0.2,   -0.8,   -0.9,   -0.4,   -0.3,   -0.6,   -0.7,   -0.6,   -0.5,   -0.6,   -0.9,   -1.0,   -0.9,   -0.8,   -1.2,   -1.1,   -0.3,   -0.2,   -1.1,   -1.1,   -1.3,   -1.3,   -0.8,   -0.5,   -0.4,   -0.2,    0.0,   -0.1,    0.3,    0.3,   -0.0,   -0.6,   -0.7,    0.6,    1.6,    2.7,    2.1,    2.1,    1.8,    1.7,    1.5,    1.1,    0.7,    0.6,    0.3,    0.3,   -0.3,   -0.2,   -1.1,    1.9
2000/12/28 17:20,   -1.7,   -0.2,   -0.1,    0.3,    0.5,    0.1,    0.5,    1.0,    1.1,    1.3,    1.7,    1.9,    1.2,    0.5,    0.1,   -0.2,   -0.5,   -0.7,   -0.3,   -0.5,   -0.6,   -0.3,   -0.8,   -1.2,   -0.8,    0.4,    0.5,    1.6,   -0.4,   -0.9,   -1.7,    0.3,    0.5,    0.4,    0.7,    0.6,    0.3,    0.0,    0.2,    0.4,    0.1,   -0.4,    2.1,    4.1,    3.6,    3.8,    3.1,    2.3,    2.9,    3.2,    4.1,    4.1,    4.8,    2.4,    1.5,    0.8,   -0.0,   -1.1
2000/12/28 17:30,  999.0,   -0.4,   -0.3,    0.2,    1.1,    1.4,    1.5,    2.0,    2.3,    2.4,    3.0,    2.5,    1.7,    1.2,    0.7,    0.4,   -0.2,   -0.4,   -0.3,   -0.2,   -0.0,   -0.5,   -1.2,   -0.7,   -0.0,    0.6,   -0.4,    0.1,  999.0,    2.0,   -0.2,    3.9,    2.5,    0.7,    1.6,   -0.7,    2.7,    1.1,    2.1,   -0.6,    0.3,   -1.2,    4.1,    4.8,    4.1,    4.4,    4.4,    4.4,    4.2,    3.9,    3.1,    2.6,    1.8,    1.7,    1.7,    1.0,    1.0,    1.6
2000/12/28 17:40,  999.0,   -0.7,   -0.3,    0.8,    2.2,    2.4,    2.5,    2.0,    2.1,    2.8,    3.2,    2.0,    2.2,    1.1,    1.0,    1.1,   -1.8,   -1.2,   -1.4,    3.0,    5.1,    4.4,    0.9,    1.0,    0.3,    0.0,    1.3,    0.2,   -0.9,   -0.9,   -0.4,   -1.1,   -2.0,   -2.4,   -2.0,   -1.9,   -2.3,   -1.8,   -1.6,   -1.4,   -1.3,    0.1,    4.0,    5.7,    6.4,    5.8,    5.7,    5.6,    2.7,    2.7,    2.3,    2.0,    2.0,    7.1,    3.4,    4.4,    1.3,    0.9
2000/12/28 17:50,  999.0,   -0.3,   -0.5,    0.5,    6.1,    0.7,    3.9,    3.0,    4.5,    7.1,    5.5,    1.0,    6.5,    9.6,    8.4,    6.4,    5.1,    4.8,   -0.9,   -0.9,   -0.6,   -0.0,    0.2,    0.5,    0.2,    0.8,   -0.2,    1.6,   -0.5,   -0.5,    1.1,   -0.9,  999.0,  999.0,   -1.1,   -0.1,  999.0,   -0.5,    0.1,   -0.7,   -0.6,  999.0,   -2.5,    6.4,    0.6,    0.1,    0.1,    0.4,    2.2,    3.4,    1.9,    1.1,    0.5,    0.0,   -0.5,   -0.3,   -0.5,   -0.7
2000/12/28 18:00,  999.0,   -2.0,  999.0,  999.0,   -2.7,   -2.9,   -3.0,   -1.8,   -2.2,   -0.9,   -0.8,   -1.8,   -2.5,   -1.5,   -1.0,   -1.3,   -1.5,   -1.3,   -1.3,   -1.1,   -1.1,   -1.5,   -1.6,   -1.1,   -0.6,   -0.2,   -0.1,   -0.2,   -4.0,   -4.8,   -4.6,   -4.8,  -14.0,  -15.1,  -15.0,  -14.9,  -15.1,  -16.4,  -17.6,  -18.3,  -16.7,  -14.7,  999.0,   -1.8,   -2.2,   -0.8,   -0.2,   -0.4,   -1.0,   -1.2,   -1.2,   -1.4,   -1.1,   -1.3,   -1.4,   -1.6,   -1.2,   -1.2
2000/12/28 18:10,   -2.2,   -5.5,   -4.8,   -6.9,   -4.5,   -2.9,   -1.0,   -0.6,   -0.9,   -0.7,   -0.8,   -0.6,   -0.6,   -0.2,    0.2,   -0.3,   -1.4,   -1.9,   -1.8,   -2.6,   -4.5,   -5.2,   -5.4,   -5.0,   -4.9,   -4.6,   -4.3,   -4.3,   -4.0,   -4.1,   -4.4,   -5.1,   -5.1,   -6.8,   -5.8,   -6.6,   -7.2,   -7.5,   -7.7,   -8.0,   -7.3,   -5.4,   -3.5,   -0.7,    0.2,   -0.2,    0.8,    1.3,    0.9,   -0.1,   -0.8,   -1.2,   -1.5,   -1.2,   -1.1,   -0.8,   -0.6,   -0.9
2000/12/28 18:20,  999.0,    6.4,   -1.5,   16.1,   22.5,   -0.1,   -0.4,   -0.7,   -1.2,   -2.2,   -3.9,   -4.1,   -4.0,   -3.5,   -3.3,   -2.6,   -2.4,   -2.4,   -3.0,   -3.6,   -4.9,   -5.2,   -4.9,   -4.0,   -3.7,   -3.4,   -3.0,   -2.6,   -2.7,   -2.7,   -1.9,   -2.8,   -3.4,   -2.9,   -3.0,   -5.0,   -6.6,   -4.1,   -5.4,  -10.2,   -6.2,   -7.6,   -2.6,   -2.3,    2.9,    2.4,    2.6,    1.7,    0.4,   -1.0,   -1.3,   -1.6,   -1.1,   -0.6,   -0.3,   -0.2,   -0.3,   -0.2
2000/12/28 18:30,  999.0,    0.1,   -1.5,   -6.5,   -6.3,   -3.0,    1.8,    1.6,   -6.1,   -5.8,   -5.8,   -5.1,   -4.3,   -5.1,   -4.2,   -3.6,   -3.4,   -3.2,   -3.4,   -4.2,   -4.0,   -2.8,   -1.9,   -2.5,   -2.0,   -2.8,   -2.3,   -2.7,   -2.0,   -2.2,   -2.6,   -4.1,   -6.5,   -6.2,   -4.7,   -5.1,   -6.0,   -7.3,   -8.1,   -6.9,   -2.7,   -0.5,    0.6,    2.3,   -1.0,   -3.1,   -3.0,   -2.8,   -2.6,   -2.4,   -2.2,   -1.3,   -1.0,   -0.4,   -0.2,   -0.4,   -0.6,   -1.3
2000/12/28 18:40,  999.0,   -1.1,   -1.4,   -1.3,   -1.8,   -3.3,   -6.8,   -7.9,   -7.2,  -10.8,  -10.4,   -6.4,   -4.0,   -3.6,   -3.8,   -4.0,   -4.0,   -3.5,   -3.7,   -3.7,   -3.6,   -3.4,   -3.6,   -3.2,   -2.8,   -3.1,   -3.7,   -3.6,   -3.3,   -2.8,   -3.5,   -4.9,   -4.9,   -4.2,   -5.1,   -6.0,   -6.5,   -6.2,   -5.8,   -4.8,   -4.3,   -2.1,    0.2,   -0.2,   -2.8,   -3.9,   -4.2,   -4.3,   -3.8,   -3.0,   -1.9,   -1.3,   -1.2,   -1.1,   -0.9,   -1.0,   -1.0,   -1.2
2000/12/28 18:50,  999.0,   -0.7,   -0.7,   -0.8,   -1.4,   -2.6,   -3.7,   -3.6,   -3.4,   -3.2,   -2.9,   -2.8,   -3.2,   -3.5,   -4.0,   -4.0,   -3.9,   -3.9,   -3.2,   -3.0,   -3.5,   -3.9,   -4.0,   -3.6,   -3.2,   -3.6,   -3.6,   -3.0,   -2.5,   -2.1,   -2.3,   -3.4,   -4.4,   -4.3,   -3.7,   -3.8,   -4.3,   -4.9,   -5.0,   -4.2,   -2.3,   -0.6,    0.3,   -1.1,   -3.9,   -5.6,   -4.8,   -3.9,   -3.4,   -2.9,   -2.2,   -2.0,   -1.7,   -1.2,   -1.0,   -0.9,   -0.9,   -1.2
2000/12/28 19:00,  999.0,   -0.9,   -0.4,   -0.5,   -1.6,   -3.0,   -3.2,   -2.9,   -2.5,   -1.7,   -1.9,   -2.8,   -3.0,   -3.6,   -4.0,   -4.0,   -3.8,   -3.5,   -3.9,   -3.4,   -3.6,   -3.8,   -3.7,   -4.1,   -4.4,   -3.9,   -3.4,   -3.2,   -2.2,   -1.8,   -1.6,   -2.3,   -2.9,   -3.4,   -4.2,   -4.0,   -4.8,   -5.1,   -4.7,   -4.7,   -4.7,   -2.4,    1.3,   -0.1,   -3.5,   -5.0,   -4.4,   -3.5,   -3.4,   -3.0,   -2.5,   -1.9,   -1.2,   -1.1,   -1.1,   -1.1,   -1.5,   -1.3
2000/12/28 19:10,  999.0,    0.6,    2.1,    1.1,   -0.5,    4.8,    4.5,   -8.7,   -9.9,   -7.2,   -5.3,   -3.5,   -3.3,   -4.0,   -4.2,   -4.1,   -4.3,   -4.6,   -5.0,   -4.5,   -4.3,   -3.8,   -3.8,   -4.6,   -5.1,   -5.4,   -3.6,   -3.9,   -3.0,   -2.4,   -1.8,   -2.6,   -3.3,   -3.6,   -5.1,   -6.9,   -7.5,   -8.3,   -8.5,   -8.2,   -7.1,   -7.3,   -1.4,   -0.7,   -4.0,   -5.4,   -4.4,   -3.3,   -3.3,   -2.5,   -1.4,   -0.6,   -0.4,   -0.7,   -0.9,   -0.8,   -1.5,   -1.3
2000/12/28 19:20,  999.0,  999.0,  -21.9,  -16.2,  -23.8,  -22.6,  -22.2,  -20.2,  -20.0,  -18.5,  -15.3,  -11.4,  -10.4,  -10.8,  -11.1,   -9.5,   -5.8,   -2.1,   -2.2,   -2.9,   -2.8,   -3.4,   -3.5,   -4.2,   -3.9,   -3.4,   -3.2,   -2.5,   -2.7,   -2.3,   -1.6,   -2.0,   -2.5,   -2.3,   -3.1,   -5.9,   -7.8,   -7.6,   -6.4,   -6.1,   -7.3,   -5.8,   -6.1,   -2.3,   -4.4,   -5.2,   -4.3,   -3.2,   -2.2,   -0.8,   -0.4,   -0.7,   -1.2,   -1.5,   -1.4,   -1.6,   -1.2,   -0.9
2000/12/28 19:30,  999.0,    5.7,    3.2,  999.0,   -1.8,    2.8,    2.7,    0.4,   -0.5,   -1.0,  999.0,  -14.3,   -4.2,   -0.9,   -2.2,    5.4,    8.7,    1.9,  999.0,    6.8,   -0.1,   -0.8,   -1.4,   -1.7,   17.6,    2.0,   -2.5,  999.0,   -3.0,   -3.0,   -2.0,   -2.5,   -3.6,   -5.1,   -5.0,   -6.5,   -9.0,   -9.0,   -8.2,  -11.2,  -10.7,  -13.0,   -8.7,   -5.1,   -4.7,   -4.6,   -3.4,   -3.4,   -2.9,   -1.9,   -1.2,   -1.5,   -1.6,   -1.1,   -1.4,   -0.7,   -0.7,   -1.2
2000/12/28 19:40,  999.0,    1.1,  999.0,  999.0,   -1.4,   -2.4,    1.4,   -3.5,    1.1,    0.1,   -7.2,    0.4,    0.4,   -3.3,    4.1,  999.0,  -21.5,  -17.1,   -8.6,   -3.5,   -3.3,   -3.5,   -3.0,   -2.8,   -2.6,   -2.2,   -3.8,   -3.9,   -3.6,   -2.9,   -3.3,   -3.2,   -3.3,   -3.5,   -5.6,  999.0,   -8.3,  999.0,  999.0,   -2.7,  999.0,   -4.0,   -2.5,    2.8,    3.4,    4.2,    6.2,    8.0,    8.3,    8.4,    8.6,    8.1,    8.4,    9.4,    9.2,    8.3,    8.2,    7.9
2000/12/28 19:50,  999.0,    2.5,    4.1,   -2.6,   -1.6,    0.6,  999.0,    9.2,   -3.3,   14.1,   -1.6,   -0.5,   -1.8,    0.1,  999.0,   -6.9,    2.7,   -1.0,  -10.5,   -7.7,    0.6,    0.6,  -14.8,  -11.0,    3.3,   -6.1,   10.2,   12.9,  -14.4,  -16.5,   -0.5,   -0.8,  999.0,   -1.3,   -0.9,  -27.6,   -0.7,   -1.0,  999.0,  999.0,   -1.1,  999.0,  999.0,  999.0,    6.5,  999.0,  999.0,  999.0,   13.4,   13.2,   14.9,   15.2,   14.8,   14.7,   15.0,   14.7,   13.6,   13.8
2000/12/28 20:00,  999.0,  999.0,  999.0,   -8.5,   -9.9,  999.0,   -3.2,    0.7,    7.3,   11.9,   18.2,   15.4,  999.0,  999.0,   19.1,   17.4,  999.0,   -1.4,   31.8,   33.5,  999.0,   -0.9,  999.0,   11.6,   14.1,   18.7,  999.0,   18.5,  999.0,   -0.6,  999.0,   -0.8,  999.0,  999.0,   -1.5,  999.0,  999.0,   -0.9,  999.0,   -0.6,   -0.4,   -0.7,  999.0,   16.5,  999.0,  999.0,  999.0,  999.0,  999.0,  999.0,  999.0,  999.0,  999.0,  999.0,  999.0,  999.0,  999.0,   15.3
2000/12/28 20:10,  999.0,  999.0,   -0.9,    0.4,   -1.0,    0.6,   -1.9,  999.0,   -2.0,  999.0,  999.0,   10.4,   10.2,  999.0,  999.0,  999.0,  999.0,  999.0,   18.9,  999.0,  999.0,   17.1,  999.0,  999.0,  999.0,   15.8,  999.0,  999.0,  999.0,  999.0,  999.0,  999.0,  999.0,  999.0,  999.0,  999.0,  999.0,  999.0,  999.0,  999.0,  999.0,  999.0,  999.0,  999.0,   16.9,  999.0,  999.0,   15.8,  999.0,  999.0,  999.0,  999.0,  999.0,  999.0,  999.0,  999.0,  999.0,  999.0
2000/12/28 20:20,  999.0,  999.0,  999.0,    4.6,    1.2,    0.7,   -0.5,   -2.1,   -1.6,   -4.5,   -1.6,   -1.5,   -3.2,   -1.8,  999.0,   -1.6,   -2.4,  999.0,  999.0,   -3.4,  999.0,  999.0,  999.0,  999.0,  999.0,  999.0,    4.6,  999.0,  999.0,   18.8,  999.0,  999.0,  999.0,   20.8,  999.0,  999.0,  999.0,  999.0,  999.0,  999.0,  999.0,  999.0,  999.0,  999.0,  999.0,  999.0,  999.0,  999.0,  999.0,   17.2,  999.0,  999.0,  999.0,  999.0,  999.0,  999.0,  999.0,  999.0
2000/12/28 20:30,  999.0,  999.0,  999.0,  999.0,   -2.3,    2.1,    1.4,   -2.4,   -3.2,  999.0,   -0.4,   -1.8,  999.0,  999.0,  999.0,  999.0,  999.0,  999.0,  999.0,  999.0,   -2.7,   -2.3,  999.0,  999.0,  999.0,   -2.0,  999.0,  999.0,  999.0,  999.0,  999.0,  999.0,  999.0,  999.0,  999.0,  999.0,  999.0,  999.0,  999.0,  999.0,  999.0,  999.0,  999.0,  999.0,  999.0,  999.0,  999.0,  999.0,  999.0,  999.0,  999.0,  999.0,  999.0,  999.0,  999.0,  999.0,  999.0,  999.0
2000/12/28 20:40,  999.0,  999.0,  999.0,    1.0,   -1.2,   -2.7,   -0.9,   -0.4,   -1.0,   -4.6,   -1.9,   -3.0,   -3.2,   -4.2,  999.0,  999.0,  999.0,  999.0,  999.0,  999.0,  999.0,  999.0,  999.0,  999.0,  -26.9,  -28.9,  999.0,  -29.3,  -31.0,  -30.4,  -30.9,  -32.9,  -32.9,  -31.9,  -34.2,  999.0,  999.0,  999.0,  999.0,  999.0,  -38.3,  999.0,  -38.2,  -39.4,  -40.3,  -41.0,  -40.0,  -41.6,  999.0,  -41.9,  -41.9,  999.0,  -41.5,  -42.6,  -42.1,  999.0,  -42.1,  999.0
2000/12/28 20:50,  999.0,  999.0,  999.0,  999.0,    0.5,  999.0,    0.6,   -0.3,   -1.2,   -0.9,   -1.5,   -2.8,   -3.8,   -5.0,   -5.1,  999.0,  999.0,  999.0,  999.0,   -4.4,  999.0,  999.0,  999.0,   -9.1,  -10.2,  -11.2,  -28.0,  -29.7,  -30.7,  -30.4,  999.0,  999.0,  -31.8,  -34.5,  999.0,  999.0,  -39.3,  999.0,  -38.2,  -39.0,  -41.2,  -41.0,  -42.3,  -41.8,  -41.9,  999.0,  -42.0,  999.0,  -41.6,  -40.5,  -41.4,  999.0,  -42.3,  999.0,  -41.5,  -41.6,  -42.3,  -41.3
2000/12/28 21:00,  999.0,  999.0,  999.0,    5.0,  999.0,    0.9,    1.3,    0.7,    0.5,    0.6,  999.0,    1.6,   -1.6,   -3.3,  999.0,  999.0,  999.0,  999.0,  999.0,  999.0,  999.0,  999.0,  999.0,  999.0,  999.0,  999.0,  -30.1,  -28.5,  999.0,  -32.8,  -31.6,  -32.7,  -34.7,  999.0,  999.0,  999.0,  999.0,  -39.0,  -39.6,  999.0,  -40.9,  -41.6,  -41.5,  999.0,  -42.4,  -42.2,  -41.7,  -41.9,  -41.9,  999.0,  999.0,  -41.9,  999.0,  999.0,  -41.4,  -41.8,  999.0,  999.0
2000/12/28 21:10,  999.0,  999.0,  999.0,    4.5,    4.4,   -0.8,    1.3,    0.7,    1.3,  999.0,   -2.1,  999.0,   -1.6,  999.0,  999.0,  999.0,   -5.5,  999.0,  999.0,  999.0,  999.0,  999.0,  999.0,  999.0,  999.0,  999.0,  999.0,  -27.2,  999.0,  999.0,  -28.6,  -27.1,  -28.7,  -28.3,  -30.1,  -30.9,  -32.0,  999.0,  -32.8,  -33.1,  999.0,  -35.7,  999.0,  999.0,  -38.0,  -38.3,  999.0,  999.0,  -38.1,  999.0,  -40.6,  -41.9,  -42.0,  999.0,  999.0,  -42.3,  -42.6,  999.0
2000/12/28 21:20,  999.0,  999.0,  999.0,  999.0,    0.8,    0.1,   -0.1,    1.3,   -0.3,   -0.3,   -1.4,   -3.6,   -4.7,  999.0,  999.0,   -5.9,   -5.0,   -6.0,  999.0,   -6.8,  999.0,  999.0,  999.0,  999.0,  999.0,  -21.7,  999.0,  999.0,  -25.8,  -26.7,  -25.0,  -27.0,  -27.8,  -28.5,  -31.1,  999.0,  -31.3,  999.0,  999.0,  999.0,  -32.3,  -34.7,  -34.3,  -35.2,  -35.6,  -37.6,  -37.3,  -36.6,  -38.1,  -38.3,  -39.6,  -41.4,  -39.8,  -40.8,  -41.2,  -41.7,  999.0,  -41.6
2000/12/28 21:30,  999.0,  999.0,  999.0,    0.4,    1.4,    2.2,   -0.1,    0.4,    0.4,    1.7,   -0.6,  999.0,  999.0,  999.0,   -5.8,  999.0,  999.0,  999.0,  999.0,   -3.9,   -4.9,  999.0,  999.0,  999.0,  999.0,   -7.6,   -8.8,  -16.6,  -28.5,  999.0,  -27.6,  999.0,  -31.0,  -31.9,  -28.6,  -30.5,  -31.7,  999.0,  -31.1,  999.0,  999.0,  -33.4,  -34.2,  -37.6,  999.0,  999.0,  -39.7,  999.0,  -40.3,  999.0,  999.0,  999.0,  -41.9,  -42.2,  -41.8,  -41.3,  -41.7,  -42.1
2000/12/28 21:40,  999.0,    1.9,    0.3,   -0.1,   -1.0,   -0.2,   -1.7,   -1.3,   -2.1,   -3.6,   -0.9,  999.0,   -7.2,   -7.5,   -3.9,  999.0,  999.0,  999.0,  999.0,  999.0,  999.0,  999.0,  999.0,  999.0,  -28.6,  -28.4,  999.0,  999.0,  -31.1,  -31.3,  -31.0,  -33.4,  -35.5,  -34.8,  -36.3,  999.0,  999.0,  -39.8,  -39.3,  -41.4,  -41.6,  999.0,  999.0,  -42.2,  999.0,  -41.4,  -41.9,  999.0,  -42.2,  -42.1,  999.0,  999.0,  -41.7,  -41.7,  -42.2,  -42.5,  -41.8,  -42.3
2000/12/28 21:50,  999.0,    1.2,    0.2,    0.9,    1.1,   -0.7,   -1.2,   -1.0,  999.0,  999.0,   -5.1,  999.0,  999.0,  999.0,  999.0,  999.0,  999.0,  999.0,  999.0,  999.0,  999.0,  999.0,  999.0,  999.0,  -29.8,  -30.3,  999.0,  -32.0,  -31.9,  -32.8,  -38.1,  -34.3,  -36.6,  -38.6,  -36.3,  999.0,  999.0,  -39.5,  -39.2,  999.0,  -41.4,  -41.8,  -41.4,  -42.5,  -42.1,  -41.9,  -42.2,  -42.2,  -41.8,  -41.2,  -42.2,  -41.4,  999.0,  -41.3,  -42.2,  -41.3,  -42.3,  -41.5
2000/12/28 22:00,  999.0,  999.0,   -2.6,  999.0,    2.1,   -1.4,   -1.5,   -0.8,  999.0,  999.0,   -3.5,   -4.0,  999.0,  999.0,  999.0,  999.0,  999.0,   -9.5,  -19.0,  999.0,  999.0,  999.0,  999.0,  999.0,  -28.6,  -30.7,  -31.3,  -31.2,  -31.5,  999.0,  999.0,  -37.2,  -37.5,  -36.4,  -39.5,  -40.0,  -40.4,  -41.8,  -40.8,  -41.0,  -41.8,  -41.4,  -41.8,  -41.7,  -42.1,  -42.1,  -41.9,  -41.9,  999.0,  -41.2,  999.0,  -42.2,  -41.8,  999.0,  -41.8,  999.0,  -41.7,  -41.9
2000/12/28 22:10,  999.0,  999.0,    3.0,    0.1,    0.6,    0.7,   -0.4,   -0.8,   -0.6,   -4.8,   -1.2,   -4.8,   -6.0,   -6.4,   -4.8,  999.0,  999.0,  999.0,  999.0,  999.0,  999.0,  999.0,  999.0,  999.0,  999.0,  -33.1,  -35.5,  999.0,  999.0,  -37.4,  -37.3,  999.0,  -41.1,  -39.2,  -41.9,  -41.6,  -41.6,  -41.3,  -41.5,  -41.9,  999.0,  999.0,  999.0,  -42.2,  -41.4,  -41.9,  -41.7,  -41.8,  999.0,  -41.0,  -41.7,  -41.8,  999.0,  -42.5,  999.0,  -41.7,  -41.4,  -42.3
2000/12/28 22:20,  999.0,  999.0,   -0.5,    1.6,    0.1,   -0.3,   -1.4,   -2.5,    1.0,  999.0,   -5.5,  999.0,  999.0,  999.0,  999.0,  999.0,  999.0,  999.0,  999.0,  999.0,  999.0,  999.0,  999.0,  -29.2,  -29.6,  -32.3,  -35.8,  -31.8,  -34.8,  -36.7,  999.0,  -38.6,  -39.8,  -40.2,  -41.3,  -42.2,  -41.7,  -42.1,  -42.5,  -42.2,  -42.3,  -42.1,  -41.9,  -42.1,  -42.6,  999.0,  -42.2,  -42.6,  -41.6,  -40.7,  -41.4,  -42.7,  999.0,  -42.6,  -42.3,  999.0,  -40.8,  999.0
2000/12/28 22:30,  999.0,  999.0,  999.0,    0.2,   -0.4,    0.2,   -2.6,   -1.5,   -2.4,  999.0,  999.0,   -0.5,  999.0,  999.0,  999.0,  999.0,  999.0,  999.0,  999.0,  999.0,  999.0,  999.0,  999.0,  999.0,  -21.9,  -33.2,  -31.6,  -32.9,  -26.7,  -37.2,  -28.9,  -39.2,  999.0,  -39.7,  999.0,  -41.5,  -41.9,  -41.8,  -41.9,  -41.7,  999.0,  -42.0,  -42.2,  -41.6,  -41.6,  999.0,  999.0,  -41.7,  -43.1,  999.0,  -42.0,  -42.2,  -42.2,  -42.1,  -42.1,  -41.3,  999.0,  999.0
2000/12/28 22:40,  999.0,  999.0,    0.3,    0.4,    1.3,  999.0,  999.0,   -1.9,   -3.1,   -4.2,  999.0,  999.0,  999.0,  999.0,   -5.6,  999.0,  999.0,  999.0,  999.0,  999.0,  999.0,  999.0,  999.0,  999.0,  999.0,  -10.9,  -33.3,  -33.0,  -34.5,  -36.9,  -37.0,  -39.2,  -17.6,  -39.7,  -42.5,    2.9,    3.5,  -19.5,  -42.1,  -42.6,  -42.8,  999.0,  999.0,  999.0,  -41.5,  999.0,  -42.3,  -21.5,  -41.8,  -27.6,  -41.9,  999.0,  999.0,  -42.1,  999.0,  -41.8,  999.0,  -41.2
2000/12/28 22:50,  999.0,  999.0,   -0.5,    1.4,    0.9,   -1.1,  999.0,  999.0,   -2.9,   -4.5,   -5.4,  999.0,  999.0,  999.0,  999.0,  999.0,  999.0,  999.0,  -14.5,  999.0,  999.0,  999.0,  999.0,  -30.2,  -30.7,  -32.0,  -33.1,  -33.4,  -36.0,  -35.5,  -36.8,  -37.8,  999.0,  -39.7,  -40.2,  -41.7,  999.0,  -41.6,  999.0,  -42.8,  -41.9,  -42.0,  -41.6,  -41.6,  -41.6,  -41.1,  999.0,  -40.8,  -41.9,  -41.5,  -41.8,  999.0,  -41.9,  -42.3,  -41.3,  -42.0,  -41.8,  -41.6
2000/12/28 23:00,  999.0,   -5.5,   -3.4,   -5.5,  999.0,   -1.4,    1.3,   -1.7,   -2.2,  999.0,  999.0,  999.0,  999.0,  999.0,  999.0,  999.0,  999.0,  999.0,  -24.1,  999.0,  999.0,  999.0,  -27.7,  999.0,  -30.6,  -32.0,  -32.1,  999.0,  -34.6,  -35.6,  -36.7,  -39.6,  -37.9,  -40.8,  -40.6,  -41.3,  -41.7,  -42.4,  -41.3,  -41.0,  -41.9,  -41.9,  -41.1,  -41.4,  -41.4,  -41.8,  -42.2,  -42.0,  -42.3,  -42.9,  -42.7,  -42.2,  999.0,  -41.6,  -41.7,  999.0,  999.0,  -41.2
2000/12/28 23:10,  999.0,  999.0,  999.0,  999.0,   -0.3,   -1.6,   -2.9,   -2.2,   -3.4,  999.0,  999.0,  999.0,  999.0,  999.0,  999.0,  -21.3,  -22.6,  -22.1,  -26.2,  -28.1,  -27.9,  -29.1,  -28.2,  999.0,  -33.0,  999.0,  999.0,  999.0,  -38.5,  999.0,  -41.0,  999.0,  -41.4,  -41.6,  999.0,  -41.8,  -41.7,  999.0,  -41.9,  -42.7,  -42.0,  -41.9,  999.0,  -42.2,  -42.1,  999.0,  -41.5,  999.0,  -41.7,  -41.9,  -42.4,  -41.7,  -41.7,  999.0,  999.0,  999.0,  999.0,  -41.8
2000/12/28 23:20,  999.0,  999.0,    0.1,   -2.1,   -1.8,   -2.2,   -2.7,   -2.4,   -3.6,  999.0,  999.0,  999.0,  999.0,  999.0,  999.0,  999.0,  999.0,  999.0,  999.0,  999.0,  999.0,  999.0,  999.0,  -32.3,  -31.7,  -34.3,  -38.7,  999.0,  -40.9,  -37.3,  -41.8,  -41.5,  -40.7,  -42.3,  -41.8,  -41.8,  -41.7,  -41.1,  -42.2,  -41.9,  -40.8,  -42.0,  -41.5,  -41.4,  -41.7,  -41.7,  -41.9,  999.0,  999.0,  -42.3,  999.0,  -41.5,  -41.9,  -42.0,  -42.0,  -41.7,  999.0,  999.0
2000/12/28 23:30,  999.0,  999.0,  999.0,   -0.9,   -0.3,   -2.6,   -1.6,   -2.0,   -3.9,   -4.7,  999.0,  999.0,  999.0,  999.0,  999.0,  999.0,  999.0,  999.0,  999.0,  999.0,  999.0,  999.0,  999.0,  999.0,  -31.1,  -32.4,  -33.6,  -34.6,  -35.7,  999.0,  -39.4,  -40.8,  999.0,  -39.4,  999.0,  -40.4,  999.0,  999.0,  999.0,  -41.4,  -41.9,  -41.4,  999.0,  -41.7,  -41.4,  999.0,  -41.5,  -41.9,  999.0,  -41.6,  999.0,  -41.9,  -42.2,  999.0,  999.0,  -42.1,  -41.8,  999.0
2000/12/28 23:40,  999.0,   -0.8,  999.0,   -0.6,    0.3,   -1.3,   -1.9,   -2.8,   -4.0,   -2.9,  999.0,  999.0,  999.0,  999.0,  999.0,  999.0,  999.0,  999.0,  999.0,  999.0,  999.0,  999.0,  999.0,  999.0,  999.0,  -31.1,  -32.5,  -32.7,  -33.8,  999.0,  999.0,  999.0,  -38.9,  -39.9,  -41.0,  -41.4,  999.0,  -41.5,  -42.6,  -41.9,  -42.6,  999.0,  -42.3,  999.0,  999.0,  -42.1,  999.0,  999.0,  -41.8,  -41.6,  -41.6,  -41.4,  -41.2,  -41.3,  -41.9,  999.0,  -41.7,  999.0
2000/12/28 23:50,  999.0,    4.0,    1.0,    0.5,    0.8,   -1.4,   -2.3,   -1.5,   -3.0,   -5.8,   -4.4,  999.0,  999.0,  -16.0,  999.0,  999.0,  999.0,  999.0,  999.0,  999.0,  999.0,  999.0,  -26.0,  -28.8,  -30.4,  -30.6,  999.0,  -36.2,  999.0,  999.0,  -34.1,  -37.1,  999.0,  999.0,  -37.4,  -42.0,  -38.2,  999.0,  -41.6,  999.0,  -41.6,  -41.4,  -41.6,  999.0,  -42.0,  -41.8,  -42.2,  -41.5,  -41.6,  999.0,  999.0,  -42.5,  -42.6,  -41.1,  -41.7,  -42.2,  999.0,  -42.0
